Time,TemperatureF,DewpointF,PressureIn,WindDirection,WindDirectionDegrees,WindSpeedMPH,WindSpeedGustMPH,Humidity,HourlyPrecipIn,Conditions,Clouds,dailyrainin,SoftwareType,DateUTC
2014-12-21 00:00:00,27.9,24.8,30.24,North,1,1.0,5.0,88,0.00,,---,-99.99,VWS V14.01,2014-12-21 05:00:00,
2014-12-21 00:01:00,27.9,24.8,30.24,North,1,0.0,1.0,88,0.00,,---,-99.99,VWS V14.01,2014-12-21 05:01:00,
2014-12-21 00:02:00,27.9,24.8,30.24,North,1,0.0,1.0,88,0.00,,---,-99.99,VWS V14.01,2014-12-21 05:02:00,
2014-12-21 00:03:00,27.9,24.8,30.24,North,1,0.0,1.0,88,0.00,,---,-99.99,VWS V14.01,2014-12-21 05:03:00,
2014-12-21 00:04:00,28.1,25.0,30.24,North,1,0.0,1.0,88,0.00,,---,-99.99,VWS V14.01,2014-12-21 05:04:00,
2014-12-21 00:05:00,28.1,25.0,30.24,North,1,0.0,1.0,88,0.00,,---,-99.99,VWS V14.01,2014-12-21 05:05:00,
2014-12-21 00:06:00,28.1,25.0,30.24,North,1,0.0,1.0,88,0.00,,---,-99.99,VWS V14.01,2014-12-21 05:06:00,
2014-12-21 00:07:00,28.1,25.0,30.24,North,1,0.0,1.0,88,0.00,,---,-99.99,VWS V14.01,2014-12-21 05:07:00,
2014-12-21 00:08:00,28.1,25.0,30.24,North,1,2.0,2.0,88,0.00,,---,-99.99,VWS V14.01,2014-12-21 05:08:00,
2014-12-21 00:09:00,28.1,25.0,30.24,North,1,0.0,3.0,88,0.00,,---,-99.99,VWS V14.01,2014-12-21 05:09:00,
2014-12-21 00:10:00,28.1,25.0,30.24,North,1,0.0,3.0,88,0.00,,---,-99.99,VWS V14.01,2014-12-21 05:10:00,
2014-12-21 00:11:00,28.1,25.0,30.24,North,1,1.0,3.0,88,0.00,,---,-99.99,VWS V14.01,2014-12-21 05:11:00,
2014-12-21 00:12:00,28.1,25.0,30.24,North,1,0.0,3.0,88,0.00,,---,-99.99,VWS V14.01,2014-12-21 05:12:00,
2014-12-21 00:13:00,28.1,25.0,30.24,North,1,0.0,3.0,88,0.00,,---,-99.99,VWS V14.01,2014-12-21 05:13:00,
2014-12-21 00:14:00,27.9,24.8,30.24,North,3,0.0,3.0,88,0.00,,---,-99.99,VWS V14.01,2014-12-21 05:14:00,
2014-12-21 00:15:00,27.9,24.8,30.24,North,3,1.0,3.0,88,0.00,,---,-99.99,VWS V14.01,2014-12-21 05:15:00,
2014-12-21 00:16:00,27.9,24.8,30.24,North,3,0.0,3.0,88,0.00,,---,-99.99,VWS V14.01,2014-12-21 05:16:00,
2014-12-21 00:17:00,27.9,24.8,30.24,North,3,0.0,3.0,88,0.00,,---,-99.99,VWS V14.01,2014-12-21 05:17:00,
2014-12-21 00:18:00,27.9,24.8,30.24,North,3,0.0,3.0,88,0.00,,---,-99.99,VWS V14.01,2014-12-21 05:18:00,
2014-12-21 00:19:00,27.9,24.8,30.24,North,3,1.0,3.0,88,0.00,,---,-99.99,VWS V14.01,2014-12-21 05:19:00,
2014-12-21 00:20:00,27.9,24.8,30.24,North,3,0.0,3.0,88,0.00,,---,-99.99,VWS V14.01,2014-12-21 05:20:00,
2014-12-21 00:21:00,27.9,24.8,30.24,North,3,0.0,3.0,88,0.00,,---,-99.99,VWS V14.01,2014-12-21 05:21:00,
2014-12-21 00:22:00,27.9,24.8,30.24,North,3,0.0,3.0,88,0.00,,---,-99.99,VWS V14.01,2014-12-21 05:22:00,
2014-12-21 00:23:00,27.9,24.8,30.24,North,3,2.0,3.0,88,0.00,,---,-99.99,VWS V14.01,2014-12-21 05:23:00,
2014-12-21 00:24:00,28.1,25.0,30.24,North,3,0.0,3.0,88,0.00,,---,-99.99,VWS V14.01,2014-12-21 05:24:00,
2014-12-21 00:25:00,27.9,24.8,30.24,North,3,0.0,3.0,88,0.00,,---,-99.99,VWS V14.01,2014-12-21 05:25:00,
2014-12-21 00:26:00,28.1,25.0,30.24,North,3,3.0,3.0,88,0.00,,---,-99.99,VWS V14.01,2014-12-21 05:26:00,
2014-12-21 00:27:00,28.1,25.0,30.24,North,3,1.0,3.0,88,0.00,,---,-99.99,VWS V14.01,2014-12-21 05:27:00,
2014-12-21 00:28:00,28.1,25.0,30.24,North,3,0.0,3.0,88,0.00,,---,-99.99,VWS V14.01,2014-12-21 05:28:00,
2014-12-21 00:29:00,28.1,25.0,30.24,North,1,4.0,5.0,88,0.00,,---,-99.99,VWS V14.01,2014-12-21 05:29:00,
2014-12-21 00:30:00,28.1,25.0,30.24,North,1,0.0,5.0,88,0.00,,---,-99.99,VWS V14.01,2014-12-21 05:30:00,
2014-12-21 00:31:00,28.1,25.0,30.24,North,1,0.0,5.0,88,0.00,,---,-99.99,VWS V14.01,2014-12-21 05:31:00,
2014-12-21 00:32:00,28.1,25.0,30.24,North,3,0.0,5.0,88,0.00,,---,-99.99,VWS V14.01,2014-12-21 05:32:00,
2014-12-21 00:33:00,28.2,25.1,30.24,North,3,0.0,5.0,88,0.00,,---,-99.99,VWS V14.01,2014-12-21 05:33:00,
2014-12-21 00:34:00,28.2,25.1,30.24,North,3,0.0,5.0,88,0.00,,---,-99.99,VWS V14.01,2014-12-21 05:34:00,
2014-12-21 00:35:00,28.2,25.1,30.24,North,3,0.0,5.0,88,0.00,,---,-99.99,VWS V14.01,2014-12-21 05:35:00,
2014-12-21 00:36:00,28.2,25.1,30.24,North,3,0.0,5.0,88,0.00,,---,-99.99,VWS V14.01,2014-12-21 05:36:00,
2014-12-21 00:37:00,28.2,25.1,30.24,North,3,0.0,5.0,88,0.00,,---,-99.99,VWS V14.01,2014-12-21 05:37:00,
2014-12-21 00:38:00,28.2,25.1,30.24,North,4,1.0,5.0,88,0.00,,---,-99.99,VWS V14.01,2014-12-21 05:38:00,
2014-12-21 00:39:00,28.2,25.1,30.24,North,6,0.0,5.0,88,0.00,,---,-99.99,VWS V14.01,2014-12-21 05:39:00,
2014-12-21 00:40:00,28.2,25.1,30.24,North,6,0.0,5.0,88,0.00,,---,-99.99,VWS V14.01,2014-12-21 05:40:00,
2014-12-21 00:41:00,28.2,25.1,30.24,North,1,0.0,5.0,88,0.00,,---,-99.99,VWS V14.01,2014-12-21 05:41:00,
2014-12-21 00:42:00,28.2,25.1,30.24,North,1,0.0,5.0,88,0.00,,---,-99.99,VWS V14.01,2014-12-21 05:42:00,
2014-12-21 00:43:00,28.2,25.1,30.24,North,1,0.0,5.0,88,0.00,,---,-99.99,VWS V14.01,2014-12-21 05:43:00,
2014-12-21 00:44:00,28.2,25.1,30.24,North,1,0.0,5.0,88,0.00,,---,-99.99,VWS V14.01,2014-12-21 05:44:00,
2014-12-21 00:45:00,28.2,25.1,30.24,North,3,0.0,5.0,88,0.00,,---,-99.99,VWS V14.01,2014-12-21 05:45:00,
2014-12-21 00:46:00,28.2,25.1,30.24,North,3,0.0,5.0,88,0.00,,---,-99.99,VWS V14.01,2014-12-21 05:46:00,
2014-12-21 00:47:00,28.2,25.1,30.24,North,3,0.0,5.0,88,0.00,,---,-99.99,VWS V14.01,2014-12-21 05:47:00,
2014-12-21 00:48:00,28.2,25.1,30.24,North,3,0.0,5.0,88,0.00,,---,-99.99,VWS V14.01,2014-12-21 05:48:00,
2014-12-21 00:49:00,28.2,25.1,30.24,North,3,0.0,5.0,88,0.00,,---,-99.99,VWS V14.01,2014-12-21 05:49:00,
2014-12-21 00:50:00,28.2,25.1,30.24,North,3,0.0,5.0,88,0.00,,---,-99.99,VWS V14.01,2014-12-21 05:50:00,
2014-12-21 00:51:00,28.2,25.1,30.24,North,3,0.0,5.0,88,0.00,,---,-99.99,VWS V14.01,2014-12-21 05:51:00,
2014-12-21 00:52:00,28.2,25.1,30.24,North,6,0.0,5.0,88,0.00,,---,-99.99,VWS V14.01,2014-12-21 05:52:00,
2014-12-21 00:53:00,28.2,25.1,30.24,North,6,0.0,5.0,88,0.00,,---,-99.99,VWS V14.01,2014-12-21 05:53:00,
2014-12-21 00:54:00,28.2,25.4,30.24,North,6,0.0,5.0,89,0.00,,---,-99.99,VWS V14.01,2014-12-21 05:54:00,
2014-12-21 00:55:00,28.2,25.4,30.24,North,3,0.0,5.0,89,0.00,,---,-99.99,VWS V14.01,2014-12-21 05:55:00,
2014-12-21 00:56:00,28.2,25.4,30.24,North,3,0.0,5.0,89,0.00,,---,-99.99,VWS V14.01,2014-12-21 05:56:00,
2014-12-21 00:57:00,28.2,25.4,30.24,North,6,0.0,5.0,89,0.00,,---,-99.99,VWS V14.01,2014-12-21 05:57:00,
2014-12-21 00:58:00,28.2,25.4,30.24,North,6,0.0,5.0,89,0.00,,---,-99.99,VWS V14.01,2014-12-21 05:58:00,
2014-12-21 00:59:00,28.2,25.4,30.24,North,6,0.0,5.0,89,0.00,,---,-99.99,VWS V14.01,2014-12-21 05:59:00,
2014-12-21 01:00:00,28.2,25.4,30.25,North,6,0.0,5.0,89,0.00,,---,-99.99,VWS V14.01,2014-12-21 06:00:00,
2014-12-21 01:01:00,28.2,25.4,30.25,North,6,0.0,0.0,89,0.00,,---,-99.99,VWS V14.01,2014-12-21 06:01:00,
2014-12-21 01:02:00,28.2,25.4,30.25,North,6,0.0,0.0,89,0.00,,---,-99.99,VWS V14.01,2014-12-21 06:02:00,
2014-12-21 01:03:00,28.4,25.6,30.25,North,6,0.0,1.0,89,0.00,,---,-99.99,VWS V14.01,2014-12-21 06:03:00,
2014-12-21 01:04:00,28.4,25.6,30.25,North,6,0.0,1.0,89,0.00,,---,-99.99,VWS V14.01,2014-12-21 06:04:00,
2014-12-21 01:05:00,28.4,25.6,30.25,North,7,0.0,2.0,89,0.00,,---,-99.99,VWS V14.01,2014-12-21 06:05:00,
2014-12-21 01:06:00,28.2,25.4,30.25,North,7,0.0,2.0,89,0.00,,---,-99.99,VWS V14.01,2014-12-21 06:06:00,
2014-12-21 01:07:00,28.4,25.6,30.25,North,7,0.0,2.0,89,0.00,,---,-99.99,VWS V14.01,2014-12-21 06:07:00,
2014-12-21 01:08:00,28.4,25.6,30.25,North,7,2.0,2.0,89,0.00,,---,-99.99,VWS V14.01,2014-12-21 06:08:00,
2014-12-21 01:09:00,28.4,25.6,30.25,North,7,0.0,2.0,89,0.00,,---,-99.99,VWS V14.01,2014-12-21 06:09:00,
2014-12-21 01:10:00,28.4,25.6,30.25,North,7,0.0,2.0,89,0.00,,---,-99.99,VWS V14.01,2014-12-21 06:10:00,
2014-12-21 01:11:00,28.4,25.6,30.25,North,7,2.0,2.0,89,0.00,,---,-99.99,VWS V14.01,2014-12-21 06:11:00,
2014-12-21 01:12:00,28.4,25.6,30.25,North,7,0.0,2.0,89,0.00,,---,-99.99,VWS V14.01,2014-12-21 06:12:00,
2014-12-21 01:13:00,28.4,25.6,30.25,North,7,0.0,2.0,89,0.00,,---,-99.99,VWS V14.01,2014-12-21 06:13:00,
2014-12-21 01:14:00,28.4,25.6,30.25,North,6,0.0,2.0,89,0.00,,---,-99.99,VWS V14.01,2014-12-21 06:14:00,
2014-12-21 01:15:00,28.4,25.6,30.25,North,6,3.0,3.0,89,0.00,,---,-99.99,VWS V14.01,2014-12-21 06:15:00,
2014-12-21 01:16:00,28.4,25.6,30.25,North,7,0.0,3.0,89,0.00,,---,-99.99,VWS V14.01,2014-12-21 06:16:00,
2014-12-21 01:17:00,28.4,25.6,30.25,North,7,0.0,3.0,89,0.00,,---,-99.99,VWS V14.01,2014-12-21 06:17:00,
2014-12-21 01:18:00,28.4,25.6,30.25,North,7,0.0,3.0,89,0.00,,---,-99.99,VWS V14.01,2014-12-21 06:18:00,
2014-12-21 01:19:00,28.4,25.6,30.25,North,6,0.0,3.0,89,0.00,,---,-99.99,VWS V14.01,2014-12-21 06:19:00,
2014-12-21 01:20:00,28.5,25.7,30.25,North,6,0.0,3.0,89,0.00,,---,-99.99,VWS V14.01,2014-12-21 06:20:00,
2014-12-21 01:21:00,28.4,25.6,30.25,North,6,0.0,3.0,89,0.00,,---,-99.99,VWS V14.01,2014-12-21 06:21:00,
2014-12-21 01:22:00,28.4,25.6,30.25,North,6,0.0,3.0,89,0.00,,---,-99.99,VWS V14.01,2014-12-21 06:22:00,
2014-12-21 01:23:00,28.4,25.6,30.25,North,6,0.0,3.0,89,0.00,,---,-99.99,VWS V14.01,2014-12-21 06:23:00,
2014-12-21 01:24:00,28.4,25.6,30.25,North,6,0.0,3.0,89,0.00,,---,-99.99,VWS V14.01,2014-12-21 06:24:00,
2014-12-21 01:25:00,28.4,25.6,30.25,North,4,0.0,3.0,89,0.00,,---,-99.99,VWS V14.01,2014-12-21 06:25:00,
2014-12-21 01:26:00,28.4,25.6,30.25,North,4,0.0,3.0,89,0.00,,---,-99.99,VWS V14.01,2014-12-21 06:26:00,
2014-12-21 01:27:00,28.4,25.6,30.25,North,4,0.0,3.0,89,0.00,,---,-99.99,VWS V14.01,2014-12-21 06:27:00,
2014-12-21 01:28:00,28.4,25.6,30.25,North,4,0.0,3.0,89,0.00,,---,-99.99,VWS V14.01,2014-12-21 06:28:00,
2014-12-21 01:29:00,28.4,25.6,30.25,North,4,0.0,3.0,89,0.00,,---,-99.99,VWS V14.01,2014-12-21 06:29:00,
2014-12-21 01:30:00,28.4,25.6,30.25,North,4,0.0,3.0,89,0.00,,---,-99.99,VWS V14.01,2014-12-21 06:30:00,
2014-12-21 01:31:00,28.4,25.6,30.25,North,4,0.0,3.0,89,0.00,,---,-99.99,VWS V14.01,2014-12-21 06:31:00,
2014-12-21 01:32:00,28.4,25.6,30.25,North,0,0.0,3.0,89,0.00,,---,-99.99,VWS V14.01,2014-12-21 06:32:00,
2014-12-21 01:33:00,28.4,25.6,30.25,North,3,0.0,3.0,89,0.00,,---,-99.99,VWS V14.01,2014-12-21 06:33:00,
2014-12-21 01:34:00,28.4,25.6,30.25,North,3,0.0,3.0,89,0.00,,---,-99.99,VWS V14.01,2014-12-21 06:34:00,
2014-12-21 01:35:00,28.4,25.6,30.25,North,3,0.0,3.0,89,0.00,,---,-99.99,VWS V14.01,2014-12-21 06:35:00,
2014-12-21 01:36:00,28.2,25.4,30.25,North,3,0.0,3.0,89,0.00,,---,-99.99,VWS V14.01,2014-12-21 06:36:00,
2014-12-21 01:37:00,28.2,25.4,30.25,North,3,0.0,3.0,89,0.00,,---,-99.99,VWS V14.01,2014-12-21 06:37:00,
2014-12-21 01:38:00,28.2,25.4,30.25,North,1,0.0,3.0,89,0.00,,---,-99.99,VWS V14.01,2014-12-21 06:38:00,
2014-12-21 01:39:00,28.2,25.4,30.25,North,0,0.0,3.0,89,0.00,,---,-99.99,VWS V14.01,2014-12-21 06:39:00,
2014-12-21 01:40:00,28.2,25.4,30.25,North,0,0.0,3.0,89,0.00,,---,-99.99,VWS V14.01,2014-12-21 06:40:00,
2014-12-21 01:41:00,28.2,25.4,30.25,North,0,0.0,3.0,89,0.00,,---,-99.99,VWS V14.01,2014-12-21 06:41:00,
2014-12-21 01:42:00,28.4,25.6,30.25,North,0,0.0,3.0,89,0.00,,---,-99.99,VWS V14.01,2014-12-21 06:42:00,
2014-12-21 01:43:00,28.4,25.6,30.25,North,0,0.0,3.0,89,0.00,,---,-99.99,VWS V14.01,2014-12-21 06:43:00,
2014-12-21 01:44:00,28.4,25.6,30.24,North,1,0.0,3.0,89,0.00,,---,-99.99,VWS V14.01,2014-12-21 06:44:00,
2014-12-21 01:45:00,28.4,25.6,30.24,North,0,0.0,3.0,89,0.00,,---,-99.99,VWS V14.01,2014-12-21 06:45:00,
2014-12-21 01:46:00,28.2,25.4,30.24,North,0,0.0,3.0,89,0.00,,---,-99.99,VWS V14.01,2014-12-21 06:46:00,
2014-12-21 01:47:00,28.2,25.4,30.24,North,0,0.0,3.0,89,0.00,,---,-99.99,VWS V14.01,2014-12-21 06:47:00,
2014-12-21 01:48:00,28.2,25.4,30.24,North,0,0.0,3.0,89,0.00,,---,-99.99,VWS V14.01,2014-12-21 06:48:00,
2014-12-21 01:49:00,28.4,25.6,30.24,North,1,0.0,3.0,89,0.00,,---,-99.99,VWS V14.01,2014-12-21 06:49:00,
2014-12-21 01:50:00,28.2,25.4,30.24,North,3,0.0,3.0,89,0.00,,---,-99.99,VWS V14.01,2014-12-21 06:50:00,
2014-12-21 01:51:00,28.2,25.4,30.24,NNW,342,0.0,3.0,89,0.00,,---,-99.99,VWS V14.01,2014-12-21 06:51:00,
2014-12-21 01:52:00,28.2,25.4,30.24,NNW,344,0.0,3.0,89,0.00,,---,-99.99,VWS V14.01,2014-12-21 06:52:00,
2014-12-21 01:53:00,28.2,25.4,30.24,NNW,344,0.0,3.0,89,0.00,,---,-99.99,VWS V14.01,2014-12-21 06:53:00,
2014-12-21 01:54:00,28.2,25.4,30.24,NNW,344,0.0,3.0,89,0.00,,---,-99.99,VWS V14.01,2014-12-21 06:54:00,
2014-12-21 01:55:00,28.2,25.4,30.24,NNW,344,0.0,3.0,89,0.00,,---,-99.99,VWS V14.01,2014-12-21 06:55:00,
2014-12-21 01:56:00,28.2,25.4,30.24,NNW,344,0.0,3.0,89,0.00,,---,-99.99,VWS V14.01,2014-12-21 06:56:00,
2014-12-21 01:57:00,28.2,25.4,30.24,NNW,344,0.0,3.0,89,0.00,,---,-99.99,VWS V14.01,2014-12-21 06:57:00,
2014-12-21 01:58:00,28.2,25.6,30.24,NNW,344,0.0,3.0,90,0.00,,---,-99.99,VWS V14.01,2014-12-21 06:58:00,
2014-12-21 01:59:00,28.2,25.6,30.25,NNW,344,0.0,3.0,90,0.00,,---,-99.99,VWS V14.01,2014-12-21 06:59:00,
2014-12-21 02:00:00,28.2,25.6,30.25,NNW,344,0.0,3.0,90,0.00,,---,-99.99,VWS V14.01,2014-12-21 07:00:00,
2014-12-21 02:01:00,28.2,25.6,30.25,NNW,344,0.0,0.0,90,0.00,,---,-99.99,VWS V14.01,2014-12-21 07:01:00,
2014-12-21 02:02:00,28.2,25.6,30.25,NNW,344,0.0,1.0,90,0.00,,---,-99.99,VWS V14.01,2014-12-21 07:02:00,
2014-12-21 02:03:00,28.2,25.6,30.25,NNW,344,0.0,1.0,90,0.00,,---,-99.99,VWS V14.01,2014-12-21 07:03:00,
2014-12-21 02:04:00,28.2,25.6,30.25,NNW,344,0.0,1.0,90,0.00,,---,-99.99,VWS V14.01,2014-12-21 07:04:00,
2014-12-21 02:05:00,28.2,25.6,30.25,NNW,344,0.0,1.0,90,0.00,,---,-99.99,VWS V14.01,2014-12-21 07:05:00,
2014-12-21 02:06:00,28.2,25.6,30.25,NNW,347,0.0,1.0,90,0.00,,---,-99.99,VWS V14.01,2014-12-21 07:06:00,
2014-12-21 02:07:00,28.2,25.6,30.25,North,352,0.0,1.0,90,0.00,,---,-99.99,VWS V14.01,2014-12-21 07:07:00,
2014-12-21 02:08:00,28.2,25.6,30.25,North,359,0.0,1.0,90,0.00,,---,-99.99,VWS V14.01,2014-12-21 07:08:00,
2014-12-21 02:09:00,28.4,25.9,30.25,North,359,0.0,1.0,90,0.00,,---,-99.99,VWS V14.01,2014-12-21 07:09:00,
2014-12-21 02:10:00,28.4,25.9,30.25,North,0,0.0,1.0,90,0.00,,---,-99.99,VWS V14.01,2014-12-21 07:10:00,
2014-12-21 02:11:00,28.4,25.9,30.25,North,0,0.0,2.0,90,0.00,,---,-99.99,VWS V14.01,2014-12-21 07:11:00,
2014-12-21 02:12:00,28.4,25.9,30.25,North,0,0.0,2.0,90,0.00,,---,-99.99,VWS V14.01,2014-12-21 07:12:00,
2014-12-21 02:13:00,28.4,25.9,30.25,North,0,0.0,2.0,90,0.00,,---,-99.99,VWS V14.01,2014-12-21 07:13:00,
2014-12-21 02:14:00,28.4,25.9,30.25,North,0,0.0,2.0,90,0.00,,---,-99.99,VWS V14.01,2014-12-21 07:14:00,
2014-12-21 02:15:00,28.4,25.9,30.24,North,0,0.0,2.0,90,0.00,,---,-99.99,VWS V14.01,2014-12-21 07:15:00,
2014-12-21 02:16:00,28.4,25.9,30.24,North,7,0.0,3.0,90,0.00,,---,-99.99,VWS V14.01,2014-12-21 07:16:00,
2014-12-21 02:17:00,28.5,26.0,30.24,North,6,0.0,3.0,90,0.00,,---,-99.99,VWS V14.01,2014-12-21 07:17:00,
2014-12-21 02:18:00,28.5,26.0,30.24,North,6,0.0,3.0,90,0.00,,---,-99.99,VWS V14.01,2014-12-21 07:18:00,
2014-12-21 02:19:00,28.5,26.0,30.24,North,6,0.0,3.0,90,0.00,,---,-99.99,VWS V14.01,2014-12-21 07:19:00,
2014-12-21 02:20:00,28.5,26.2,30.24,North,6,0.0,3.0,91,0.00,,---,-99.99,VWS V14.01,2014-12-21 07:20:00,
2014-12-21 02:21:00,28.5,26.2,30.24,North,6,0.0,3.0,91,0.00,,---,-99.99,VWS V14.01,2014-12-21 07:21:00,
2014-12-21 02:22:00,28.5,26.2,30.24,North,6,0.0,3.0,91,0.00,,---,-99.99,VWS V14.01,2014-12-21 07:22:00,
2014-12-21 02:23:00,28.5,26.2,30.24,North,6,0.0,3.0,91,0.00,,---,-99.99,VWS V14.01,2014-12-21 07:23:00,
2014-12-21 02:24:00,28.5,26.0,30.24,North,6,0.0,3.0,90,0.00,,---,-99.99,VWS V14.01,2014-12-21 07:24:00,
2014-12-21 02:25:00,28.5,26.0,30.24,North,6,1.0,3.0,90,0.00,,---,-99.99,VWS V14.01,2014-12-21 07:25:00,
2014-12-21 02:26:00,28.5,26.0,30.24,North,4,0.0,3.0,90,0.00,,---,-99.99,VWS V14.01,2014-12-21 07:26:00,
2014-12-21 02:27:00,28.4,25.9,30.24,North,4,0.0,3.0,90,0.00,,---,-99.99,VWS V14.01,2014-12-21 07:27:00,
2014-12-21 02:28:00,28.4,25.9,30.24,North,4,0.0,3.0,90,0.00,,---,-99.99,VWS V14.01,2014-12-21 07:28:00,
2014-12-21 02:29:00,28.4,25.9,30.24,North,4,0.0,3.0,90,0.00,,---,-99.99,VWS V14.01,2014-12-21 07:29:00,
2014-12-21 02:30:00,28.4,25.9,30.24,North,4,0.0,3.0,90,0.00,,---,-99.99,VWS V14.01,2014-12-21 07:30:00,
2014-12-21 02:31:00,28.4,25.9,30.24,North,4,0.0,3.0,90,0.00,,---,-99.99,VWS V14.01,2014-12-21 07:31:00,
2014-12-21 02:32:00,28.5,26.0,30.24,North,4,0.0,3.0,90,0.00,,---,-99.99,VWS V14.01,2014-12-21 07:32:00,
2014-12-21 02:33:00,28.5,26.2,30.24,North,4,0.0,3.0,91,0.00,,---,-99.99,VWS V14.01,2014-12-21 07:33:00,
2014-12-21 02:34:00,28.5,26.2,30.24,North,4,0.0,3.0,91,0.00,,---,-99.99,VWS V14.01,2014-12-21 07:34:00,
2014-12-21 02:35:00,28.5,26.2,30.24,North,4,0.0,3.0,91,0.00,,---,-99.99,VWS V14.01,2014-12-21 07:35:00,
2014-12-21 02:36:00,28.5,26.2,30.24,North,4,0.0,3.0,91,0.00,,---,-99.99,VWS V14.01,2014-12-21 07:36:00,
2014-12-21 02:37:00,28.5,26.2,30.24,North,4,0.0,3.0,91,0.00,,---,-99.99,VWS V14.01,2014-12-21 07:37:00,
2014-12-21 02:38:00,28.5,26.2,30.24,North,4,0.0,3.0,91,0.00,,---,-99.99,VWS V14.01,2014-12-21 07:38:00,
2014-12-21 02:39:00,28.5,26.2,30.24,North,4,0.0,3.0,91,0.00,,---,-99.99,VWS V14.01,2014-12-21 07:39:00,
2014-12-21 02:40:00,28.5,26.2,30.24,North,4,0.0,3.0,91,0.00,,---,-99.99,VWS V14.01,2014-12-21 07:40:00,
2014-12-21 02:41:00,28.5,26.2,30.24,North,4,0.0,3.0,91,0.00,,---,-99.99,VWS V14.01,2014-12-21 07:41:00,
2014-12-21 02:42:00,28.5,26.2,30.24,North,4,0.0,3.0,91,0.00,,---,-99.99,VWS V14.01,2014-12-21 07:42:00,
2014-12-21 02:43:00,28.5,26.2,30.24,North,4,0.0,3.0,91,0.00,,---,-99.99,VWS V14.01,2014-12-21 07:43:00,
2014-12-21 02:44:00,28.5,26.2,30.24,North,4,0.0,3.0,91,0.00,,---,-99.99,VWS V14.01,2014-12-21 07:44:00,
2014-12-21 02:45:00,28.5,26.2,30.24,North,4,0.0,3.0,91,0.00,,---,-99.99,VWS V14.01,2014-12-21 07:45:00,
2014-12-21 02:46:00,28.5,26.2,30.24,North,4,0.0,3.0,91,0.00,,---,-99.99,VWS V14.01,2014-12-21 07:46:00,
2014-12-21 02:47:00,28.7,26.4,30.24,North,4,0.0,3.0,91,0.00,,---,-99.99,VWS V14.01,2014-12-21 07:47:00,
2014-12-21 02:48:00,28.7,26.4,30.24,North,4,0.0,3.0,91,0.00,,---,-99.99,VWS V14.01,2014-12-21 07:48:00,
2014-12-21 02:49:00,28.7,26.4,30.24,North,4,0.0,3.0,91,0.00,,---,-99.99,VWS V14.01,2014-12-21 07:49:00,
2014-12-21 02:50:00,28.7,26.4,30.24,North,4,0.0,3.0,91,0.00,,---,-99.99,VWS V14.01,2014-12-21 07:50:00,
2014-12-21 02:51:00,28.7,26.4,30.24,North,4,0.0,3.0,91,0.00,,---,-99.99,VWS V14.01,2014-12-21 07:51:00,
2014-12-21 02:52:00,28.7,26.4,30.24,North,359,0.0,3.0,91,0.00,,---,-99.99,VWS V14.01,2014-12-21 07:52:00,
2014-12-21 02:53:00,28.7,26.4,30.24,North,359,0.0,3.0,91,0.00,,---,-99.99,VWS V14.01,2014-12-21 07:53:00,
2014-12-21 02:54:00,28.7,26.4,30.24,North,359,0.0,3.0,91,0.00,,---,-99.99,VWS V14.01,2014-12-21 07:54:00,
2014-12-21 02:55:00,28.7,26.4,30.24,North,359,0.0,3.0,91,0.00,,---,-99.99,VWS V14.01,2014-12-21 07:55:00,
2014-12-21 02:56:00,28.7,26.4,30.24,North,359,0.0,3.0,91,0.00,,---,-99.99,VWS V14.01,2014-12-21 07:56:00,
2014-12-21 02:57:00,28.7,26.4,30.24,North,359,0.0,3.0,91,0.00,,---,-99.99,VWS V14.01,2014-12-21 07:57:00,
2014-12-21 02:58:00,28.7,26.4,30.24,North,359,0.0,3.0,91,0.00,,---,-99.99,VWS V14.01,2014-12-21 07:58:00,
2014-12-21 02:59:00,28.7,26.4,30.24,North,359,0.0,3.0,91,0.00,,---,-99.99,VWS V14.01,2014-12-21 07:59:00,
2014-12-21 03:00:00,28.7,26.4,30.24,North,359,0.0,3.0,91,0.00,,---,-99.99,VWS V14.01,2014-12-21 08:00:00,
2014-12-21 03:01:00,28.7,26.4,30.24,North,359,0.0,0.0,91,0.00,,---,-99.99,VWS V14.01,2014-12-21 08:01:00,
2014-12-21 03:02:00,28.7,26.4,30.24,North,359,0.0,0.0,91,0.00,,---,-99.99,VWS V14.01,2014-12-21 08:02:00,
2014-12-21 03:03:00,28.7,26.4,30.24,North,359,0.0,0.0,91,0.00,,---,-99.99,VWS V14.01,2014-12-21 08:03:00,
2014-12-21 03:04:00,28.7,26.4,30.24,North,359,0.0,0.0,91,0.00,,---,-99.99,VWS V14.01,2014-12-21 08:04:00,
2014-12-21 03:05:00,28.7,26.4,30.24,North,359,0.0,0.0,91,0.00,,---,-99.99,VWS V14.01,2014-12-21 08:05:00,
2014-12-21 03:06:00,28.7,26.4,30.24,North,359,0.0,0.0,91,0.00,,---,-99.99,VWS V14.01,2014-12-21 08:06:00,
2014-12-21 03:07:00,28.7,26.4,30.24,North,359,0.0,0.0,91,0.00,,---,-99.99,VWS V14.01,2014-12-21 08:07:00,
2014-12-21 03:08:00,28.7,26.4,30.24,North,359,0.0,0.0,91,0.00,,---,-99.99,VWS V14.01,2014-12-21 08:08:00,
2014-12-21 03:09:00,28.7,26.4,30.24,North,359,0.0,0.0,91,0.00,,---,-99.99,VWS V14.01,2014-12-21 08:09:00,
2014-12-21 03:10:00,28.8,26.5,30.24,North,6,0.0,0.0,91,0.00,,---,-99.99,VWS V14.01,2014-12-21 08:10:00,
2014-12-21 03:11:00,28.7,26.4,30.24,North,4,0.0,0.0,91,0.00,,---,-99.99,VWS V14.01,2014-12-21 08:11:00,
2014-12-21 03:12:00,28.8,26.5,30.24,North,4,0.0,0.0,91,0.00,,---,-99.99,VWS V14.01,2014-12-21 08:12:00,
2014-12-21 03:13:00,28.7,26.4,30.24,North,4,0.0,0.0,91,0.00,,---,-99.99,VWS V14.01,2014-12-21 08:13:00,
2014-12-21 03:14:00,28.7,26.4,30.24,North,4,0.0,0.0,91,0.00,,---,-99.99,VWS V14.01,2014-12-21 08:14:00,
2014-12-21 03:15:00,28.8,26.5,30.25,North,4,0.0,0.0,91,0.00,,---,-99.99,VWS V14.01,2014-12-21 08:15:00,
2014-12-21 03:16:00,28.7,26.4,30.25,North,4,0.0,0.0,91,0.00,,---,-99.99,VWS V14.01,2014-12-21 08:16:00,
2014-12-21 03:17:00,28.7,26.4,30.25,North,3,0.0,0.0,91,0.00,,---,-99.99,VWS V14.01,2014-12-21 08:17:00,
2014-12-21 03:18:00,28.7,26.4,30.25,North,3,0.0,0.0,91,0.00,,---,-99.99,VWS V14.01,2014-12-21 08:18:00,
2014-12-21 03:19:00,28.7,26.4,30.25,North,3,0.0,0.0,91,0.00,,---,-99.99,VWS V14.01,2014-12-21 08:19:00,
2014-12-21 03:20:00,28.7,26.4,30.25,North,4,0.0,0.0,91,0.00,,---,-99.99,VWS V14.01,2014-12-21 08:20:00,
2014-12-21 03:21:00,28.7,26.4,30.25,North,0,0.0,2.0,91,0.00,,---,-99.99,VWS V14.01,2014-12-21 08:21:00,
2014-12-21 03:22:00,28.7,26.4,30.25,North,0,0.0,2.0,91,0.00,,---,-99.99,VWS V14.01,2014-12-21 08:22:00,
2014-12-21 03:23:00,28.7,26.4,30.25,North,0,0.0,2.0,91,0.00,,---,-99.99,VWS V14.01,2014-12-21 08:23:00,
2014-12-21 03:24:00,28.7,26.4,30.25,North,0,0.0,2.0,91,0.00,,---,-99.99,VWS V14.01,2014-12-21 08:24:00,
2014-12-21 03:25:00,28.7,26.4,30.25,North,0,0.0,2.0,91,0.00,,---,-99.99,VWS V14.01,2014-12-21 08:25:00,
2014-12-21 03:26:00,28.7,26.4,30.25,North,0,0.0,2.0,91,0.00,,---,-99.99,VWS V14.01,2014-12-21 08:26:00,
2014-12-21 03:27:00,28.7,26.4,30.25,North,0,0.0,2.0,91,0.00,,---,-99.99,VWS V14.01,2014-12-21 08:27:00,
2014-12-21 03:28:00,28.7,26.4,30.25,North,0,0.0,2.0,91,0.00,,---,-99.99,VWS V14.01,2014-12-21 08:28:00,
2014-12-21 03:29:00,28.7,26.4,30.25,North,0,0.0,2.0,91,0.00,,---,-99.99,VWS V14.01,2014-12-21 08:29:00,
2014-12-21 03:30:00,28.7,26.4,30.25,North,0,0.0,2.0,91,0.00,,---,-99.99,VWS V14.01,2014-12-21 08:30:00,
2014-12-21 03:31:00,28.7,26.4,30.25,North,0,0.0,2.0,91,0.00,,---,-99.99,VWS V14.01,2014-12-21 08:31:00,
2014-12-21 03:32:00,28.7,26.4,30.25,North,0,0.0,2.0,91,0.00,,---,-99.99,VWS V14.01,2014-12-21 08:32:00,
2014-12-21 03:33:00,28.7,26.4,30.25,North,0,0.0,2.0,91,0.00,,---,-99.99,VWS V14.01,2014-12-21 08:33:00,
2014-12-21 03:34:00,28.7,26.4,30.25,North,0,0.0,2.0,91,0.00,,---,-99.99,VWS V14.01,2014-12-21 08:34:00,
2014-12-21 03:35:00,28.7,26.4,30.25,North,0,0.0,2.0,91,0.00,,---,-99.99,VWS V14.01,2014-12-21 08:35:00,
2014-12-21 03:36:00,28.7,26.4,30.25,North,0,0.0,2.0,91,0.00,,---,-99.99,VWS V14.01,2014-12-21 08:36:00,
2014-12-21 03:37:00,28.7,26.4,30.25,North,0,0.0,2.0,91,0.00,,---,-99.99,VWS V14.01,2014-12-21 08:37:00,
2014-12-21 03:38:00,28.7,26.4,30.25,North,0,0.0,2.0,91,0.00,,---,-99.99,VWS V14.01,2014-12-21 08:38:00,
2014-12-21 03:39:00,28.7,26.4,30.25,North,0,0.0,2.0,91,0.00,,---,-99.99,VWS V14.01,2014-12-21 08:39:00,
2014-12-21 03:40:00,28.8,26.5,30.25,North,0,0.0,2.0,91,0.00,,---,-99.99,VWS V14.01,2014-12-21 08:40:00,
2014-12-21 03:41:00,28.7,26.4,30.25,North,0,0.0,2.0,91,0.00,,---,-99.99,VWS V14.01,2014-12-21 08:41:00,
2014-12-21 03:42:00,28.7,26.4,30.25,North,0,0.0,2.0,91,0.00,,---,-99.99,VWS V14.01,2014-12-21 08:42:00,
2014-12-21 03:43:00,28.7,26.4,30.25,North,0,0.0,2.0,91,0.00,,---,-99.99,VWS V14.01,2014-12-21 08:43:00,
2014-12-21 03:44:00,28.7,26.4,30.25,North,0,0.0,2.0,91,0.00,,---,-99.99,VWS V14.01,2014-12-21 08:44:00,
2014-12-21 03:45:00,28.7,26.4,30.25,North,0,0.0,2.0,91,0.00,,---,-99.99,VWS V14.01,2014-12-21 08:45:00,
2014-12-21 03:46:00,28.7,26.4,30.25,North,0,0.0,2.0,91,0.00,,---,-99.99,VWS V14.01,2014-12-21 08:46:00,
2014-12-21 03:47:00,28.7,26.4,30.25,North,0,0.0,2.0,91,0.00,,---,-99.99,VWS V14.01,2014-12-21 08:47:00,
2014-12-21 03:48:00,28.7,26.4,30.25,North,0,0.0,2.0,91,0.00,,---,-99.99,VWS V14.01,2014-12-21 08:48:00,
2014-12-21 03:49:00,28.7,26.4,30.25,North,359,0.0,2.0,91,0.00,,---,-99.99,VWS V14.01,2014-12-21 08:49:00,
2014-12-21 03:50:00,28.7,26.4,30.25,North,359,0.0,2.0,91,0.00,,---,-99.99,VWS V14.01,2014-12-21 08:50:00,
2014-12-21 03:51:00,28.7,26.4,30.25,North,359,0.0,2.0,91,0.00,,---,-99.99,VWS V14.01,2014-12-21 08:51:00,
2014-12-21 03:52:00,28.7,26.4,30.25,North,359,0.0,2.0,91,0.00,,---,-99.99,VWS V14.01,2014-12-21 08:52:00,
2014-12-21 03:53:00,28.7,26.4,30.25,North,359,0.0,2.0,91,0.00,,---,-99.99,VWS V14.01,2014-12-21 08:53:00,
2014-12-21 03:54:00,28.8,26.5,30.25,North,0,0.0,2.0,91,0.00,,---,-99.99,VWS V14.01,2014-12-21 08:54:00,
2014-12-21 03:55:00,28.8,26.5,30.25,North,0,0.0,2.0,91,0.00,,---,-99.99,VWS V14.01,2014-12-21 08:55:00,
2014-12-21 03:56:00,28.7,26.4,30.25,North,0,0.0,2.0,91,0.00,,---,-99.99,VWS V14.01,2014-12-21 08:56:00,
2014-12-21 03:57:00,28.7,26.4,30.25,North,0,0.0,2.0,91,0.00,,---,-99.99,VWS V14.01,2014-12-21 08:57:00,
2014-12-21 03:58:00,28.7,26.4,30.25,North,0,0.0,2.0,91,0.00,,---,-99.99,VWS V14.01,2014-12-21 08:58:00,
2014-12-21 03:59:00,28.8,26.5,30.25,North,0,1.0,2.0,91,0.00,,---,-99.99,VWS V14.01,2014-12-21 08:59:00,
2014-12-21 04:00:00,28.8,26.5,30.24,North,0,0.0,2.0,91,0.00,,---,-99.99,VWS V14.01,2014-12-21 09:00:00,
2014-12-21 04:01:00,28.7,26.4,30.24,North,0,0.0,0.0,91,0.00,,---,-99.99,VWS V14.01,2014-12-21 09:01:00,
2014-12-21 04:02:00,28.7,26.4,30.24,North,0,0.0,0.0,91,0.00,,---,-99.99,VWS V14.01,2014-12-21 09:02:00,
2014-12-21 04:03:00,28.7,26.4,30.24,North,0,0.0,0.0,91,0.00,,---,-99.99,VWS V14.01,2014-12-21 09:03:00,
2014-12-21 04:04:00,28.7,26.4,30.24,North,0,0.0,0.0,91,0.00,,---,-99.99,VWS V14.01,2014-12-21 09:04:00,
2014-12-21 04:05:00,28.7,26.4,30.24,North,0,0.0,0.0,91,0.00,,---,-99.99,VWS V14.01,2014-12-21 09:05:00,
2014-12-21 04:06:00,28.7,26.4,30.24,North,0,0.0,0.0,91,0.00,,---,-99.99,VWS V14.01,2014-12-21 09:06:00,
2014-12-21 04:07:00,28.7,26.4,30.24,North,0,0.0,0.0,91,0.00,,---,-99.99,VWS V14.01,2014-12-21 09:07:00,
2014-12-21 04:08:00,28.7,26.4,30.24,North,0,0.0,0.0,91,0.00,,---,-99.99,VWS V14.01,2014-12-21 09:08:00,
2014-12-21 04:09:00,28.7,26.4,30.24,North,0,0.0,0.0,91,0.00,,---,-99.99,VWS V14.01,2014-12-21 09:09:00,
2014-12-21 04:10:00,28.7,26.7,30.24,North,0,0.0,0.0,92,0.00,,---,-99.99,VWS V14.01,2014-12-21 09:10:00,
2014-12-21 04:11:00,28.7,26.7,30.24,North,0,0.0,0.0,92,0.00,,---,-99.99,VWS V14.01,2014-12-21 09:11:00,
2014-12-21 04:12:00,28.7,26.7,30.24,North,0,0.0,0.0,92,0.00,,---,-99.99,VWS V14.01,2014-12-21 09:12:00,
2014-12-21 04:13:00,28.7,26.4,30.24,North,0,1.0,1.0,91,0.00,,---,-99.99,VWS V14.01,2014-12-21 09:13:00,
2014-12-21 04:14:00,28.7,26.4,30.24,North,0,0.0,2.0,91,0.00,,---,-99.99,VWS V14.01,2014-12-21 09:14:00,
2014-12-21 04:15:00,28.7,26.4,30.24,North,0,0.0,2.0,91,0.00,,---,-99.99,VWS V14.01,2014-12-21 09:15:00,
2014-12-21 04:16:00,28.7,26.4,30.24,North,0,0.0,2.0,91,0.00,,---,-99.99,VWS V14.01,2014-12-21 09:16:00,
2014-12-21 04:17:00,28.7,26.4,30.24,North,0,0.0,2.0,91,0.00,,---,-99.99,VWS V14.01,2014-12-21 09:17:00,
2014-12-21 04:18:00,28.7,26.4,30.24,North,0,0.0,2.0,91,0.00,,---,-99.99,VWS V14.01,2014-12-21 09:18:00,
2014-12-21 04:19:00,28.7,26.4,30.24,North,0,0.0,2.0,91,0.00,,---,-99.99,VWS V14.01,2014-12-21 09:19:00,
2014-12-21 04:20:00,28.7,26.4,30.24,North,0,0.0,2.0,91,0.00,,---,-99.99,VWS V14.01,2014-12-21 09:20:00,
2014-12-21 04:21:00,28.7,26.7,30.24,North,0,0.0,2.0,92,0.00,,---,-99.99,VWS V14.01,2014-12-21 09:21:00,
2014-12-21 04:22:00,28.8,26.8,30.24,North,0,0.0,2.0,92,0.00,,---,-99.99,VWS V14.01,2014-12-21 09:22:00,
2014-12-21 04:23:00,28.8,26.8,30.24,North,0,0.0,2.0,92,0.00,,---,-99.99,VWS V14.01,2014-12-21 09:23:00,
2014-12-21 04:24:00,28.8,26.8,30.24,North,0,0.0,2.0,92,0.00,,---,-99.99,VWS V14.01,2014-12-21 09:24:00,
2014-12-21 04:25:00,28.8,26.8,30.24,North,0,0.0,2.0,92,0.00,,---,-99.99,VWS V14.01,2014-12-21 09:25:00,
2014-12-21 04:26:00,28.8,26.8,30.24,North,0,0.0,2.0,92,0.00,,---,-99.99,VWS V14.01,2014-12-21 09:26:00,
2014-12-21 04:27:00,28.8,26.8,30.24,North,0,0.0,2.0,92,0.00,,---,-99.99,VWS V14.01,2014-12-21 09:27:00,
2014-12-21 04:28:00,28.8,26.8,30.24,North,0,0.0,2.0,92,0.00,,---,-99.99,VWS V14.01,2014-12-21 09:28:00,
2014-12-21 04:29:00,28.8,26.8,30.24,North,0,0.0,2.0,92,0.00,,---,-99.99,VWS V14.01,2014-12-21 09:29:00,
2014-12-21 04:30:00,28.8,26.8,30.24,North,0,0.0,2.0,92,0.00,,---,-99.99,VWS V14.01,2014-12-21 09:30:00,
2014-12-21 04:31:00,28.8,26.8,30.24,North,0,0.0,2.0,92,0.00,,---,-99.99,VWS V14.01,2014-12-21 09:31:00,
2014-12-21 04:32:00,28.8,26.8,30.24,North,0,0.0,2.0,92,0.00,,---,-99.99,VWS V14.01,2014-12-21 09:32:00,
2014-12-21 04:33:00,28.8,26.8,30.24,North,0,0.0,2.0,92,0.00,,---,-99.99,VWS V14.01,2014-12-21 09:33:00,
2014-12-21 04:34:00,29.0,27.0,30.24,North,0,0.0,2.0,92,0.00,,---,-99.99,VWS V14.01,2014-12-21 09:34:00,
2014-12-21 04:35:00,29.0,27.0,30.24,North,0,0.0,2.0,92,0.00,,---,-99.99,VWS V14.01,2014-12-21 09:35:00,
2014-12-21 04:36:00,29.0,27.0,30.24,North,0,0.0,2.0,92,0.00,,---,-99.99,VWS V14.01,2014-12-21 09:36:00,
2014-12-21 04:37:00,29.0,27.0,30.24,North,0,0.0,2.0,92,0.00,,---,-99.99,VWS V14.01,2014-12-21 09:37:00,
2014-12-21 04:38:00,29.0,27.0,30.24,North,0,0.0,2.0,92,0.00,,---,-99.99,VWS V14.01,2014-12-21 09:38:00,
2014-12-21 04:39:00,29.0,27.0,30.24,North,0,0.0,2.0,92,0.00,,---,-99.99,VWS V14.01,2014-12-21 09:39:00,
2014-12-21 04:40:00,29.0,27.0,30.24,North,0,0.0,2.0,92,0.00,,---,-99.99,VWS V14.01,2014-12-21 09:40:00,
2014-12-21 04:41:00,29.0,27.0,30.24,North,0,0.0,2.0,92,0.00,,---,-99.99,VWS V14.01,2014-12-21 09:41:00,
2014-12-21 04:42:00,29.0,27.0,30.24,North,0,0.0,2.0,92,0.00,,---,-99.99,VWS V14.01,2014-12-21 09:42:00,
2014-12-21 04:43:00,29.0,27.0,30.24,North,0,0.0,2.0,92,0.00,,---,-99.99,VWS V14.01,2014-12-21 09:43:00,
2014-12-21 04:44:00,29.0,27.0,30.24,North,0,0.0,2.0,92,0.00,,---,-99.99,VWS V14.01,2014-12-21 09:44:00,
2014-12-21 04:45:00,29.0,27.2,30.24,North,0,0.0,2.0,93,0.00,,---,-99.99,VWS V14.01,2014-12-21 09:45:00,
2014-12-21 04:46:00,29.0,27.2,30.24,North,0,0.0,2.0,93,0.00,,---,-99.99,VWS V14.01,2014-12-21 09:46:00,
2014-12-21 04:47:00,29.0,27.2,30.24,North,0,0.0,2.0,93,0.00,,---,-99.99,VWS V14.01,2014-12-21 09:47:00,
2014-12-21 04:48:00,29.0,27.2,30.24,North,0,0.0,2.0,93,0.00,,---,-99.99,VWS V14.01,2014-12-21 09:48:00,
2014-12-21 04:49:00,29.0,27.2,30.24,North,0,0.0,2.0,93,0.00,,---,-99.99,VWS V14.01,2014-12-21 09:49:00,
2014-12-21 04:50:00,29.0,27.5,30.24,North,0,0.0,2.0,94,0.00,,---,-99.99,VWS V14.01,2014-12-21 09:50:00,
2014-12-21 04:51:00,29.1,27.6,30.24,North,0,0.0,2.0,94,0.00,,---,-99.99,VWS V14.01,2014-12-21 09:51:00,
2014-12-21 04:52:00,29.1,27.6,30.24,North,0,0.0,2.0,94,0.00,,---,-99.99,VWS V14.01,2014-12-21 09:52:00,
2014-12-21 04:53:00,29.1,27.6,30.24,North,0,0.0,2.0,94,0.00,,---,-99.99,VWS V14.01,2014-12-21 09:53:00,
2014-12-21 04:54:00,29.1,27.1,30.24,North,0,0.0,2.0,92,0.00,,---,-99.99,VWS V14.01,2014-12-21 09:54:00,
2014-12-21 04:55:00,29.1,27.1,30.24,North,0,0.0,2.0,92,0.00,,---,-99.99,VWS V14.01,2014-12-21 09:55:00,
2014-12-21 04:56:00,29.1,27.1,30.24,North,0,0.0,2.0,92,0.00,,---,-99.99,VWS V14.01,2014-12-21 09:56:00,
2014-12-21 04:57:00,29.1,27.1,30.24,North,0,0.0,2.0,92,0.00,,---,-99.99,VWS V14.01,2014-12-21 09:57:00,
2014-12-21 04:58:00,29.1,27.1,30.24,North,0,0.0,2.0,92,0.00,,---,-99.99,VWS V14.01,2014-12-21 09:58:00,
2014-12-21 04:59:00,29.1,27.1,30.24,North,0,0.0,2.0,92,0.00,,---,-99.99,VWS V14.01,2014-12-21 09:59:00,
2014-12-21 05:00:00,29.1,27.3,30.24,North,0,0.0,2.0,93,0.00,,---,-99.99,VWS V14.01,2014-12-21 10:00:00,
2014-12-21 05:01:00,29.1,27.3,30.24,North,0,0.0,0.0,93,0.00,,---,-99.99,VWS V14.01,2014-12-21 10:01:00,
2014-12-21 05:02:00,29.1,27.3,30.24,North,0,0.0,0.0,93,0.00,,---,-99.99,VWS V14.01,2014-12-21 10:02:00,
2014-12-21 05:03:00,29.3,27.5,30.24,North,0,0.0,1.0,93,0.00,,---,-99.99,VWS V14.01,2014-12-21 10:03:00,
2014-12-21 05:04:00,29.3,27.8,30.24,North,0,0.0,1.0,94,0.00,,---,-99.99,VWS V14.01,2014-12-21 10:04:00,
2014-12-21 05:05:00,29.3,27.8,30.24,North,0,0.0,1.0,94,0.00,,---,-99.99,VWS V14.01,2014-12-21 10:05:00,
2014-12-21 05:06:00,29.3,27.8,30.24,North,0,0.0,1.0,94,0.00,,---,-99.99,VWS V14.01,2014-12-21 10:06:00,
2014-12-21 05:07:00,29.3,27.5,30.24,North,0,0.0,1.0,93,0.00,,---,-99.99,VWS V14.01,2014-12-21 10:07:00,
2014-12-21 05:08:00,29.3,27.5,30.24,North,0,0.0,1.0,93,0.00,,---,-99.99,VWS V14.01,2014-12-21 10:08:00,
2014-12-21 05:09:00,29.3,27.5,30.24,North,0,0.0,1.0,93,0.00,,---,-99.99,VWS V14.01,2014-12-21 10:09:00,
2014-12-21 05:10:00,29.4,27.6,30.24,North,0,0.0,1.0,93,0.00,,---,-99.99,VWS V14.01,2014-12-21 10:10:00,
2014-12-21 05:11:00,29.3,27.5,30.24,North,0,0.0,1.0,93,0.00,,---,-99.99,VWS V14.01,2014-12-21 10:11:00,
2014-12-21 05:12:00,29.3,27.5,30.24,North,0,0.0,1.0,93,0.00,,---,-99.99,VWS V14.01,2014-12-21 10:12:00,
2014-12-21 05:13:00,29.4,27.6,30.24,North,0,0.0,1.0,93,0.00,,---,-99.99,VWS V14.01,2014-12-21 10:13:00,
2014-12-21 05:14:00,29.4,27.9,30.24,North,0,0.0,1.0,94,0.00,,---,-99.99,VWS V14.01,2014-12-21 10:14:00,
2014-12-21 05:15:00,29.4,27.9,30.24,North,0,0.0,1.0,94,0.00,,---,-99.99,VWS V14.01,2014-12-21 10:15:00,
2014-12-21 05:16:00,29.4,27.9,30.24,North,0,0.0,1.0,94,0.00,,---,-99.99,VWS V14.01,2014-12-21 10:16:00,
2014-12-21 05:17:00,29.4,27.9,30.24,North,0,0.0,1.0,94,0.00,,---,-99.99,VWS V14.01,2014-12-21 10:17:00,
2014-12-21 05:18:00,29.4,27.9,30.24,North,0,0.0,1.0,94,0.00,,---,-99.99,VWS V14.01,2014-12-21 10:18:00,
2014-12-21 05:19:00,29.4,27.9,30.24,North,0,0.0,1.0,94,0.00,,---,-99.99,VWS V14.01,2014-12-21 10:19:00,
2014-12-21 05:20:00,29.4,27.6,30.24,North,0,0.0,1.0,93,0.00,,---,-99.99,VWS V14.01,2014-12-21 10:20:00,
2014-12-21 05:21:00,29.4,27.6,30.24,North,0,0.0,1.0,93,0.00,,---,-99.99,VWS V14.01,2014-12-21 10:21:00,
2014-12-21 05:22:00,29.4,27.6,30.24,North,0,0.0,1.0,93,0.00,,---,-99.99,VWS V14.01,2014-12-21 10:22:00,
2014-12-21 05:23:00,29.4,27.6,30.24,North,0,0.0,1.0,93,0.00,,---,-99.99,VWS V14.01,2014-12-21 10:23:00,
2014-12-21 05:24:00,29.4,27.6,30.24,North,0,0.0,1.0,93,0.00,,---,-99.99,VWS V14.01,2014-12-21 10:24:00,
2014-12-21 05:25:00,29.4,27.6,30.24,North,0,0.0,1.0,93,0.00,,---,-99.99,VWS V14.01,2014-12-21 10:25:00,
2014-12-21 05:26:00,29.4,27.6,30.24,North,0,0.0,1.0,93,0.00,,---,-99.99,VWS V14.01,2014-12-21 10:26:00,
2014-12-21 05:27:00,29.4,27.6,30.24,North,0,0.0,1.0,93,0.00,,---,-99.99,VWS V14.01,2014-12-21 10:27:00,
2014-12-21 05:28:00,29.5,27.7,30.24,North,0,0.0,1.0,93,0.00,,---,-99.99,VWS V14.01,2014-12-21 10:28:00,
2014-12-21 05:29:00,29.5,28.0,30.25,North,0,0.0,1.0,94,0.00,,---,-99.99,VWS V14.01,2014-12-21 10:29:00,
2014-12-21 05:30:00,29.5,28.0,30.25,North,0,0.0,1.0,94,0.00,,---,-99.99,VWS V14.01,2014-12-21 10:30:00,
2014-12-21 05:31:00,29.5,28.0,30.25,North,0,0.0,1.0,94,0.00,,---,-99.99,VWS V14.01,2014-12-21 10:31:00,
2014-12-21 05:32:00,29.5,28.0,30.25,North,0,0.0,1.0,94,0.00,,---,-99.99,VWS V14.01,2014-12-21 10:32:00,
2014-12-21 05:33:00,29.5,28.0,30.25,North,0,0.0,1.0,94,0.00,,---,-99.99,VWS V14.01,2014-12-21 10:33:00,
2014-12-21 05:34:00,29.5,28.0,30.25,North,0,0.0,1.0,94,0.00,,---,-99.99,VWS V14.01,2014-12-21 10:34:00,
2014-12-21 05:35:00,29.5,28.0,30.25,North,0,0.0,1.0,94,0.00,,---,-99.99,VWS V14.01,2014-12-21 10:35:00,
2014-12-21 05:36:00,29.5,28.0,30.25,North,0,0.0,1.0,94,0.00,,---,-99.99,VWS V14.01,2014-12-21 10:36:00,
2014-12-21 05:37:00,29.5,28.0,30.25,North,0,0.0,1.0,94,0.00,,---,-99.99,VWS V14.01,2014-12-21 10:37:00,
2014-12-21 05:38:00,29.5,28.0,30.25,North,0,0.0,1.0,94,0.00,,---,-99.99,VWS V14.01,2014-12-21 10:38:00,
2014-12-21 05:39:00,29.7,28.2,30.25,North,0,0.0,1.0,94,0.00,,---,-99.99,VWS V14.01,2014-12-21 10:39:00,
2014-12-21 05:40:00,29.7,28.2,30.25,North,0,0.0,1.0,94,0.00,,---,-99.99,VWS V14.01,2014-12-21 10:40:00,
2014-12-21 05:41:00,29.7,28.5,30.25,North,0,0.0,1.0,95,0.00,,---,-99.99,VWS V14.01,2014-12-21 10:41:00,
2014-12-21 05:42:00,29.7,27.9,30.25,North,0,0.0,1.0,93,0.00,,---,-99.99,VWS V14.01,2014-12-21 10:42:00,
2014-12-21 05:43:00,29.7,27.9,30.25,North,0,0.0,1.0,93,0.00,,---,-99.99,VWS V14.01,2014-12-21 10:43:00,
2014-12-21 05:44:00,29.7,27.9,30.25,North,0,0.0,1.0,93,0.00,,---,-99.99,VWS V14.01,2014-12-21 10:44:00,
2014-12-21 05:45:00,29.7,27.9,30.25,North,0,0.0,1.0,93,0.00,,---,-99.99,VWS V14.01,2014-12-21 10:45:00,
2014-12-21 05:46:00,29.7,28.5,30.25,North,0,0.0,1.0,95,0.00,,---,-99.99,VWS V14.01,2014-12-21 10:46:00,
2014-12-21 05:47:00,29.8,28.5,30.25,North,0,0.0,1.0,95,0.00,,---,-99.99,VWS V14.01,2014-12-21 10:47:00,
2014-12-21 05:48:00,29.8,28.3,30.25,North,0,2.0,2.0,94,0.00,,---,-99.99,VWS V14.01,2014-12-21 10:48:00,
2014-12-21 05:49:00,29.8,28.3,30.25,North,0,0.0,3.0,94,0.00,,---,-99.99,VWS V14.01,2014-12-21 10:49:00,
2014-12-21 05:50:00,29.8,28.3,30.25,North,0,0.0,3.0,94,0.00,,---,-99.99,VWS V14.01,2014-12-21 10:50:00,
2014-12-21 05:51:00,29.8,28.3,30.25,North,0,0.0,3.0,94,0.00,,---,-99.99,VWS V14.01,2014-12-21 10:51:00,
2014-12-21 05:52:00,29.8,28.3,30.25,North,0,0.0,3.0,94,0.00,,---,-99.99,VWS V14.01,2014-12-21 10:52:00,
2014-12-21 05:53:00,29.8,28.3,30.25,North,0,0.0,3.0,94,0.00,,---,-99.99,VWS V14.01,2014-12-21 10:53:00,
2014-12-21 05:54:00,29.8,28.3,30.25,North,0,0.0,3.0,94,0.00,,---,-99.99,VWS V14.01,2014-12-21 10:54:00,
2014-12-21 05:55:00,29.8,28.3,30.25,North,0,0.0,3.0,94,0.00,,---,-99.99,VWS V14.01,2014-12-21 10:55:00,
2014-12-21 05:56:00,29.8,28.5,30.25,North,0,0.0,3.0,95,0.00,,---,-99.99,VWS V14.01,2014-12-21 10:56:00,
2014-12-21 05:57:00,29.8,28.5,30.25,North,0,0.0,3.0,95,0.00,,---,-99.99,VWS V14.01,2014-12-21 10:57:00,
2014-12-21 05:58:00,29.8,28.5,30.25,North,0,0.0,3.0,95,0.00,,---,-99.99,VWS V14.01,2014-12-21 10:58:00,
2014-12-21 05:59:00,30.0,28.7,30.25,North,0,0.0,3.0,95,0.00,,---,-99.99,VWS V14.01,2014-12-21 10:59:00,
2014-12-21 06:00:00,29.8,28.5,30.25,North,0,0.0,3.0,95,0.00,,---,-99.99,VWS V14.01,2014-12-21 11:00:00,
2014-12-21 06:01:00,29.8,28.8,30.25,North,0,0.0,0.0,96,0.00,,---,-99.99,VWS V14.01,2014-12-21 11:01:00,
2014-12-21 06:02:00,30.0,29.0,30.25,North,0,0.0,0.0,96,0.00,,---,-99.99,VWS V14.01,2014-12-21 11:02:00,
2014-12-21 06:03:00,30.0,29.0,30.25,North,0,0.0,0.0,96,0.00,,---,-99.99,VWS V14.01,2014-12-21 11:03:00,
2014-12-21 06:04:00,30.0,29.0,30.25,North,0,0.0,0.0,96,0.00,,---,-99.99,VWS V14.01,2014-12-21 11:04:00,
2014-12-21 06:05:00,30.0,29.0,30.25,North,0,0.0,0.0,96,0.00,,---,-99.99,VWS V14.01,2014-12-21 11:05:00,
2014-12-21 06:06:00,30.0,29.0,30.25,North,0,0.0,0.0,96,0.00,,---,-99.99,VWS V14.01,2014-12-21 11:06:00,
2014-12-21 06:07:00,30.0,29.0,30.25,North,0,0.0,0.0,96,0.00,,---,-99.99,VWS V14.01,2014-12-21 11:07:00,
2014-12-21 06:08:00,30.0,29.0,30.25,North,0,0.0,0.0,96,0.00,,---,-99.99,VWS V14.01,2014-12-21 11:08:00,
2014-12-21 06:09:00,30.0,29.0,30.25,North,0,0.0,0.0,96,0.00,,---,-99.99,VWS V14.01,2014-12-21 11:09:00,
2014-12-21 06:10:00,30.0,29.0,30.25,North,0,0.0,0.0,96,0.00,,---,-99.99,VWS V14.01,2014-12-21 11:10:00,
2014-12-21 06:11:00,30.0,29.0,30.25,North,0,0.0,1.0,96,0.00,,---,-99.99,VWS V14.01,2014-12-21 11:11:00,
2014-12-21 06:12:00,30.0,29.0,30.25,North,0,1.0,1.0,96,0.00,,---,-99.99,VWS V14.01,2014-12-21 11:12:00,
2014-12-21 06:13:00,30.0,29.2,30.25,North,0,0.0,1.0,97,0.00,,---,-99.99,VWS V14.01,2014-12-21 11:13:00,
2014-12-21 06:14:00,30.0,29.2,30.25,North,0,0.0,1.0,97,0.00,,---,-99.99,VWS V14.01,2014-12-21 11:14:00,
2014-12-21 06:15:00,30.0,29.0,30.25,North,0,0.0,1.0,96,0.00,,---,-99.99,VWS V14.01,2014-12-21 11:15:00,
2014-12-21 06:16:00,30.0,29.0,30.25,North,0,0.0,1.0,96,0.00,,---,-99.99,VWS V14.01,2014-12-21 11:16:00,
2014-12-21 06:17:00,30.0,29.2,30.25,North,0,0.0,1.0,97,0.00,,---,-99.99,VWS V14.01,2014-12-21 11:17:00,
2014-12-21 06:18:00,30.0,29.2,30.25,North,0,0.0,1.0,97,0.00,,---,-99.99,VWS V14.01,2014-12-21 11:18:00,
2014-12-21 06:19:00,30.1,29.4,30.25,North,0,0.0,1.0,97,0.00,,---,-99.99,VWS V14.01,2014-12-21 11:19:00,
2014-12-21 06:20:00,30.1,29.4,30.25,North,0,0.0,1.0,97,0.00,,---,-99.99,VWS V14.01,2014-12-21 11:20:00,
2014-12-21 06:21:00,30.1,29.4,30.25,North,0,0.0,1.0,97,0.00,,---,-99.99,VWS V14.01,2014-12-21 11:21:00,
2014-12-21 06:22:00,30.1,29.4,30.25,North,0,0.0,1.0,97,0.00,,---,-99.99,VWS V14.01,2014-12-21 11:22:00,
2014-12-21 06:23:00,30.1,29.4,30.25,North,0,0.0,1.0,97,0.00,,---,-99.99,VWS V14.01,2014-12-21 11:23:00,
2014-12-21 06:24:00,30.1,29.4,30.25,North,0,0.0,1.0,97,0.00,,---,-99.99,VWS V14.01,2014-12-21 11:24:00,
2014-12-21 06:25:00,30.1,29.1,30.25,North,0,0.0,1.0,96,0.00,,---,-99.99,VWS V14.01,2014-12-21 11:25:00,
2014-12-21 06:26:00,30.1,29.1,30.25,North,0,0.0,1.0,96,0.00,,---,-99.99,VWS V14.01,2014-12-21 11:26:00,
2014-12-21 06:27:00,30.1,29.1,30.25,North,0,0.0,1.0,96,0.00,,---,-99.99,VWS V14.01,2014-12-21 11:27:00,
2014-12-21 06:28:00,30.1,29.1,30.25,North,0,0.0,1.0,96,0.00,,---,-99.99,VWS V14.01,2014-12-21 11:28:00,
2014-12-21 06:29:00,30.1,29.1,30.25,North,0,0.0,1.0,96,0.00,,---,-99.99,VWS V14.01,2014-12-21 11:29:00,
2014-12-21 06:30:00,30.1,28.8,30.26,North,0,0.0,1.0,95,0.00,,---,-99.99,VWS V14.01,2014-12-21 11:30:00,
2014-12-21 06:31:00,30.1,28.8,30.26,North,0,0.0,1.0,95,0.00,,---,-99.99,VWS V14.01,2014-12-21 11:31:00,
2014-12-21 06:32:00,30.1,28.8,30.26,North,0,0.0,1.0,95,0.00,,---,-99.99,VWS V14.01,2014-12-21 11:32:00,
2014-12-21 06:33:00,30.1,28.8,30.26,North,0,0.0,1.0,95,0.00,,---,-99.99,VWS V14.01,2014-12-21 11:33:00,
2014-12-21 06:34:00,30.1,28.8,30.26,North,0,0.0,1.0,95,0.00,,---,-99.99,VWS V14.01,2014-12-21 11:34:00,
2014-12-21 06:35:00,30.3,29.0,30.26,North,0,0.0,1.0,95,0.00,,---,-99.99,VWS V14.01,2014-12-21 11:35:00,
2014-12-21 06:36:00,30.3,29.0,30.26,North,0,0.0,1.0,95,0.00,,---,-99.99,VWS V14.01,2014-12-21 11:36:00,
2014-12-21 06:37:00,30.3,29.0,30.26,North,0,0.0,1.0,95,0.00,,---,-99.99,VWS V14.01,2014-12-21 11:37:00,
2014-12-21 06:38:00,30.3,29.0,30.26,North,0,0.0,1.0,95,0.00,,---,-99.99,VWS V14.01,2014-12-21 11:38:00,
2014-12-21 06:39:00,30.3,29.0,30.26,North,0,0.0,1.0,95,0.00,,---,-99.99,VWS V14.01,2014-12-21 11:39:00,
2014-12-21 06:40:00,30.3,29.0,30.26,North,0,0.0,1.0,95,0.00,,---,-99.99,VWS V14.01,2014-12-21 11:40:00,
2014-12-21 06:41:00,30.3,29.0,30.26,North,0,0.0,1.0,95,0.00,,---,-99.99,VWS V14.01,2014-12-21 11:41:00,
2014-12-21 06:42:00,30.3,29.0,30.26,North,0,0.0,1.0,95,0.00,,---,-99.99,VWS V14.01,2014-12-21 11:42:00,
2014-12-21 06:43:00,30.3,29.0,30.26,North,0,0.0,1.0,95,0.00,,---,-99.99,VWS V14.01,2014-12-21 11:43:00,
2014-12-21 06:44:00,30.3,29.0,30.26,North,0,0.0,1.0,95,0.00,,---,-99.99,VWS V14.01,2014-12-21 11:44:00,
2014-12-21 06:45:00,30.3,29.0,30.26,North,0,0.0,1.0,95,0.00,,---,-99.99,VWS V14.01,2014-12-21 11:45:00,
2014-12-21 06:46:00,30.3,29.0,30.26,North,0,0.0,1.0,95,0.00,,---,-99.99,VWS V14.01,2014-12-21 11:46:00,
2014-12-21 06:47:00,30.3,29.3,30.26,North,0,0.0,1.0,96,0.00,,---,-99.99,VWS V14.01,2014-12-21 11:47:00,
2014-12-21 06:48:00,30.4,29.4,30.26,North,0,0.0,1.0,96,0.00,,---,-99.99,VWS V14.01,2014-12-21 11:48:00,
2014-12-21 06:49:00,30.4,29.4,30.26,North,0,0.0,1.0,96,0.00,,---,-99.99,VWS V14.01,2014-12-21 11:49:00,
2014-12-21 06:50:00,30.4,29.4,30.26,North,0,0.0,1.0,96,0.00,,---,-99.99,VWS V14.01,2014-12-21 11:50:00,
2014-12-21 06:51:00,30.4,29.1,30.26,North,0,0.0,1.0,95,0.00,,---,-99.99,VWS V14.01,2014-12-21 11:51:00,
2014-12-21 06:52:00,30.4,29.4,30.26,North,0,0.0,1.0,96,0.00,,---,-99.99,VWS V14.01,2014-12-21 11:52:00,
2014-12-21 06:53:00,30.4,29.4,30.26,North,0,0.0,1.0,96,0.00,,---,-99.99,VWS V14.01,2014-12-21 11:53:00,
2014-12-21 06:54:00,30.4,29.4,30.26,North,0,0.0,1.0,96,0.00,,---,-99.99,VWS V14.01,2014-12-21 11:54:00,
2014-12-21 06:55:00,30.4,29.4,30.26,North,0,0.0,1.0,96,0.00,,---,-99.99,VWS V14.01,2014-12-21 11:55:00,
2014-12-21 06:56:00,30.4,29.6,30.26,North,0,0.0,1.0,97,0.00,,---,-99.99,VWS V14.01,2014-12-21 11:56:00,
2014-12-21 06:57:00,30.6,29.9,30.26,North,0,0.0,1.0,97,0.00,,---,-99.99,VWS V14.01,2014-12-21 11:57:00,
2014-12-21 06:58:00,30.6,29.9,30.26,North,0,0.0,1.0,97,0.00,,---,-99.99,VWS V14.01,2014-12-21 11:58:00,
2014-12-21 06:59:00,30.6,29.9,30.26,North,0,0.0,1.0,97,0.00,,---,-99.99,VWS V14.01,2014-12-21 11:59:00,
2014-12-21 07:00:00,30.6,29.9,30.25,North,0,0.0,1.0,97,0.00,,---,-99.99,VWS V14.01,2014-12-21 12:00:00,
2014-12-21 07:01:00,30.6,29.9,30.25,North,0,0.0,0.0,97,0.00,,---,-99.99,VWS V14.01,2014-12-21 12:01:00,
2014-12-21 07:02:00,30.6,29.9,30.25,North,0,0.0,0.0,97,0.00,,---,-99.99,VWS V14.01,2014-12-21 12:02:00,
2014-12-21 07:03:00,30.7,30.0,30.25,North,0,0.0,0.0,97,0.00,,---,-99.99,VWS V14.01,2014-12-21 12:03:00,
2014-12-21 07:04:00,30.7,30.2,30.25,North,0,0.0,0.0,98,0.00,,---,-99.99,VWS V14.01,2014-12-21 12:04:00,
2014-12-21 07:05:00,30.7,30.2,30.25,North,0,0.0,0.0,98,0.00,,---,-99.99,VWS V14.01,2014-12-21 12:05:00,
2014-12-21 07:06:00,30.7,30.2,30.25,North,0,0.0,0.0,98,0.00,,---,-99.99,VWS V14.01,2014-12-21 12:06:00,
2014-12-21 07:07:00,30.7,30.2,30.25,North,0,0.0,0.0,98,0.00,,---,-99.99,VWS V14.01,2014-12-21 12:07:00,
2014-12-21 07:08:00,30.7,30.2,30.25,North,0,0.0,0.0,98,0.00,,---,-99.99,VWS V14.01,2014-12-21 12:08:00,
2014-12-21 07:09:00,30.7,30.2,30.25,North,0,0.0,0.0,98,0.00,,---,-99.99,VWS V14.01,2014-12-21 12:09:00,
2014-12-21 07:10:00,30.9,30.4,30.25,North,0,0.0,0.0,98,0.00,,---,-99.99,VWS V14.01,2014-12-21 12:10:00,
2014-12-21 07:11:00,30.9,30.4,30.25,North,0,0.0,0.0,98,0.00,,---,-99.99,VWS V14.01,2014-12-21 12:11:00,
2014-12-21 07:12:00,30.9,30.4,30.25,North,0,0.0,0.0,98,0.00,,---,-99.99,VWS V14.01,2014-12-21 12:12:00,
2014-12-21 07:13:00,30.9,30.4,30.25,North,0,0.0,0.0,98,0.00,,---,-99.99,VWS V14.01,2014-12-21 12:13:00,
2014-12-21 07:14:00,31.0,30.5,30.25,North,0,0.0,0.0,98,0.00,,---,-99.99,VWS V14.01,2014-12-21 12:14:00,
2014-12-21 07:15:00,31.0,30.5,30.26,North,0,0.0,0.0,98,0.00,,---,-99.99,VWS V14.01,2014-12-21 12:15:00,
2014-12-21 07:16:00,31.0,31.0,30.26,North,0,0.0,0.0,100,0.00,,---,-99.99,VWS V14.01,2014-12-21 12:16:00,
2014-12-21 07:17:00,31.0,30.5,30.26,North,0,0.0,0.0,98,0.00,,---,-99.99,VWS V14.01,2014-12-21 12:17:00,
2014-12-21 07:18:00,31.0,30.5,30.26,North,0,0.0,1.0,98,0.00,,---,-99.99,VWS V14.01,2014-12-21 12:18:00,
2014-12-21 07:19:00,31.0,30.5,30.26,North,0,0.0,1.0,98,0.00,,---,-99.99,VWS V14.01,2014-12-21 12:19:00,
2014-12-21 07:20:00,31.0,30.5,30.26,North,0,0.0,1.0,98,0.00,,---,-99.99,VWS V14.01,2014-12-21 12:20:00,
2014-12-21 07:21:00,31.0,30.5,30.26,North,0,0.0,1.0,98,0.00,,---,-99.99,VWS V14.01,2014-12-21 12:21:00,
2014-12-21 07:22:00,31.2,30.7,30.26,North,0,0.0,1.0,98,0.00,,---,-99.99,VWS V14.01,2014-12-21 12:22:00,
2014-12-21 07:23:00,31.2,30.7,30.26,North,0,0.0,1.0,98,0.00,,---,-99.99,VWS V14.01,2014-12-21 12:23:00,
2014-12-21 07:24:00,31.2,30.7,30.26,North,0,0.0,1.0,98,0.00,,---,-99.99,VWS V14.01,2014-12-21 12:24:00,
2014-12-21 07:25:00,31.2,30.7,30.26,North,0,0.0,1.0,98,0.00,,---,-99.99,VWS V14.01,2014-12-21 12:25:00,
2014-12-21 07:26:00,31.2,30.7,30.26,North,0,0.0,1.0,98,0.00,,---,-99.99,VWS V14.01,2014-12-21 12:26:00,
2014-12-21 07:27:00,31.2,30.7,30.26,North,0,0.0,1.0,98,0.00,,---,-99.99,VWS V14.01,2014-12-21 12:27:00,
2014-12-21 07:28:00,31.2,30.7,30.26,North,0,0.0,1.0,98,0.00,,---,-99.99,VWS V14.01,2014-12-21 12:28:00,
2014-12-21 07:29:00,31.2,30.7,30.26,North,0,0.0,1.0,98,0.00,,---,-99.99,VWS V14.01,2014-12-21 12:29:00,
2014-12-21 07:30:00,31.3,30.8,30.26,North,0,0.0,1.0,98,0.00,,---,-99.99,VWS V14.01,2014-12-21 12:30:00,
2014-12-21 07:31:00,31.3,31.3,30.26,North,0,0.0,1.0,100,0.00,,---,-99.99,VWS V14.01,2014-12-21 12:31:00,
2014-12-21 07:32:00,31.3,30.5,30.26,North,0,0.0,1.0,97,0.00,,---,-99.99,VWS V14.01,2014-12-21 12:32:00,
2014-12-21 07:33:00,31.3,30.5,30.26,North,0,0.0,1.0,97,0.00,,---,-99.99,VWS V14.01,2014-12-21 12:33:00,
2014-12-21 07:34:00,31.3,30.5,30.26,North,0,0.0,1.0,97,0.00,,---,-99.99,VWS V14.01,2014-12-21 12:34:00,
2014-12-21 07:35:00,31.3,30.5,30.26,North,0,1.0,1.0,97,0.00,,---,-99.99,VWS V14.01,2014-12-21 12:35:00,
2014-12-21 07:36:00,31.3,30.3,30.26,North,0,0.0,2.0,96,0.00,,---,-99.99,VWS V14.01,2014-12-21 12:36:00,
2014-12-21 07:37:00,31.3,31.3,30.26,North,0,0.0,2.0,100,0.00,,---,-99.99,VWS V14.01,2014-12-21 12:37:00,
2014-12-21 07:38:00,31.3,31.3,30.26,North,0,0.0,2.0,100,0.00,,---,-99.99,VWS V14.01,2014-12-21 12:38:00,
2014-12-21 07:39:00,31.5,30.5,30.26,North,0,0.0,2.0,96,0.00,,---,-99.99,VWS V14.01,2014-12-21 12:39:00,
2014-12-21 07:40:00,31.5,30.5,30.26,North,0,0.0,2.0,96,0.00,,---,-99.99,VWS V14.01,2014-12-21 12:40:00,
2014-12-21 07:41:00,31.5,30.5,30.26,North,0,0.0,2.0,96,0.00,,---,-99.99,VWS V14.01,2014-12-21 12:41:00,
2014-12-21 07:42:00,31.5,30.5,30.26,North,0,0.0,2.0,96,0.00,,---,-99.99,VWS V14.01,2014-12-21 12:42:00,
2014-12-21 07:43:00,31.5,30.5,30.26,North,0,0.0,2.0,96,0.00,,---,-99.99,VWS V14.01,2014-12-21 12:43:00,
2014-12-21 07:44:00,31.5,30.5,30.26,North,0,0.0,2.0,96,0.00,,---,-99.99,VWS V14.01,2014-12-21 12:44:00,
2014-12-21 07:45:00,31.5,30.5,30.26,North,0,0.0,2.0,96,0.00,,---,-99.99,VWS V14.01,2014-12-21 12:45:00,
2014-12-21 07:46:00,31.5,30.5,30.26,North,0,0.0,2.0,96,0.00,,---,-99.99,VWS V14.01,2014-12-21 12:46:00,
2014-12-21 07:47:00,31.5,30.5,30.26,North,0,0.0,2.0,96,0.00,,---,-99.99,VWS V14.01,2014-12-21 12:47:00,
2014-12-21 07:48:00,31.5,30.5,30.26,North,0,0.0,2.0,96,0.00,,---,-99.99,VWS V14.01,2014-12-21 12:48:00,
2014-12-21 07:49:00,31.5,31.2,30.26,North,0,0.0,2.0,99,0.00,,---,-99.99,VWS V14.01,2014-12-21 12:49:00,
2014-12-21 07:50:00,31.5,30.5,30.26,North,0,0.0,2.0,96,0.00,,---,-99.99,VWS V14.01,2014-12-21 12:50:00,
2014-12-21 07:51:00,31.5,30.5,30.26,North,0,0.0,2.0,96,0.00,,---,-99.99,VWS V14.01,2014-12-21 12:51:00,
2014-12-21 07:52:00,31.5,30.5,30.26,North,0,0.0,2.0,96,0.00,,---,-99.99,VWS V14.01,2014-12-21 12:52:00,
2014-12-21 07:53:00,31.5,30.5,30.26,North,0,0.0,2.0,96,0.00,,---,-99.99,VWS V14.01,2014-12-21 12:53:00,
2014-12-21 07:54:00,31.5,30.2,30.26,North,0,0.0,2.0,95,0.00,,---,-99.99,VWS V14.01,2014-12-21 12:54:00,
2014-12-21 07:55:00,31.6,30.3,30.26,North,0,0.0,2.0,95,0.00,,---,-99.99,VWS V14.01,2014-12-21 12:55:00,
2014-12-21 07:56:00,31.6,30.3,30.26,North,0,0.0,2.0,95,0.00,,---,-99.99,VWS V14.01,2014-12-21 12:56:00,
2014-12-21 07:57:00,31.6,30.3,30.26,North,0,0.0,2.0,95,0.00,,---,-99.99,VWS V14.01,2014-12-21 12:57:00,
2014-12-21 07:58:00,31.6,30.3,30.26,North,0,0.0,2.0,95,0.00,,---,-99.99,VWS V14.01,2014-12-21 12:58:00,
2014-12-21 07:59:00,31.6,30.3,30.26,North,0,0.0,2.0,95,0.00,,---,-99.99,VWS V14.01,2014-12-21 12:59:00,
2014-12-21 08:00:00,31.6,30.3,30.26,North,0,0.0,2.0,95,0.00,,---,-99.99,VWS V14.01,2014-12-21 13:00:00,
2014-12-21 08:01:00,31.6,30.3,30.26,North,0,0.0,0.0,95,0.00,,---,-99.99,VWS V14.01,2014-12-21 13:01:00,
2014-12-21 08:02:00,31.8,30.5,30.26,North,0,0.0,0.0,95,0.00,,---,-99.99,VWS V14.01,2014-12-21 13:02:00,
2014-12-21 08:03:00,31.8,30.5,30.26,North,0,0.0,0.0,95,0.00,,---,-99.99,VWS V14.01,2014-12-21 13:03:00,
2014-12-21 08:04:00,31.8,30.5,30.26,North,0,0.0,0.0,95,0.00,,---,-99.99,VWS V14.01,2014-12-21 13:04:00,
2014-12-21 08:05:00,31.8,30.5,30.26,North,0,0.0,1.0,95,0.00,,---,-99.99,VWS V14.01,2014-12-21 13:05:00,
2014-12-21 08:06:00,31.8,30.5,30.26,North,0,0.0,1.0,95,0.00,,---,-99.99,VWS V14.01,2014-12-21 13:06:00,
2014-12-21 08:07:00,31.8,30.5,30.26,North,0,0.0,1.0,95,0.00,,---,-99.99,VWS V14.01,2014-12-21 13:07:00,
2014-12-21 08:08:00,31.8,30.5,30.26,North,0,0.0,1.0,95,0.00,,---,-99.99,VWS V14.01,2014-12-21 13:08:00,
2014-12-21 08:09:00,31.8,30.3,30.26,North,0,0.0,2.0,94,0.00,,---,-99.99,VWS V14.01,2014-12-21 13:09:00,
2014-12-21 08:10:00,31.8,30.3,30.26,North,0,0.0,2.0,94,0.00,,---,-99.99,VWS V14.01,2014-12-21 13:10:00,
2014-12-21 08:11:00,31.8,30.3,30.26,North,0,0.0,2.0,94,0.00,,---,-99.99,VWS V14.01,2014-12-21 13:11:00,
2014-12-21 08:12:00,31.8,30.3,30.26,North,0,0.0,2.0,94,0.00,,---,-99.99,VWS V14.01,2014-12-21 13:12:00,
2014-12-21 08:13:00,31.8,30.3,30.26,North,0,0.0,2.0,94,0.00,,---,-99.99,VWS V14.01,2014-12-21 13:13:00,
2014-12-21 08:14:00,31.8,30.3,30.26,North,0,0.0,2.0,94,0.00,,---,-99.99,VWS V14.01,2014-12-21 13:14:00,
2014-12-21 08:15:00,31.8,30.3,30.27,North,0,0.0,2.0,94,0.00,,---,-99.99,VWS V14.01,2014-12-21 13:15:00,
2014-12-21 08:16:00,31.8,30.0,30.27,North,0,0.0,2.0,93,0.00,,---,-99.99,VWS V14.01,2014-12-21 13:16:00,
2014-12-21 08:17:00,31.9,30.1,30.27,North,0,0.0,2.0,93,0.00,,---,-99.99,VWS V14.01,2014-12-21 13:17:00,
2014-12-21 08:18:00,31.9,30.1,30.27,North,0,0.0,2.0,93,0.00,,---,-99.99,VWS V14.01,2014-12-21 13:18:00,
2014-12-21 08:19:00,31.9,30.1,30.27,North,0,0.0,2.0,93,0.00,,---,-99.99,VWS V14.01,2014-12-21 13:19:00,
2014-12-21 08:20:00,31.9,30.1,30.27,North,0,0.0,2.0,93,0.00,,---,-99.99,VWS V14.01,2014-12-21 13:20:00,
2014-12-21 08:21:00,31.9,30.1,30.27,North,0,0.0,2.0,93,0.00,,---,-99.99,VWS V14.01,2014-12-21 13:21:00,
2014-12-21 08:22:00,31.9,30.1,30.27,North,0,0.0,2.0,93,0.00,,---,-99.99,VWS V14.01,2014-12-21 13:22:00,
2014-12-21 08:23:00,31.9,30.1,30.27,North,0,0.0,2.0,93,0.00,,---,-99.99,VWS V14.01,2014-12-21 13:23:00,
2014-12-21 08:24:00,31.9,30.1,30.27,North,0,0.0,2.0,93,0.00,,---,-99.99,VWS V14.01,2014-12-21 13:24:00,
2014-12-21 08:25:00,31.9,30.1,30.27,North,0,0.0,2.0,93,0.00,,---,-99.99,VWS V14.01,2014-12-21 13:25:00,
2014-12-21 08:26:00,31.9,30.1,30.27,North,0,0.0,2.0,93,0.00,,---,-99.99,VWS V14.01,2014-12-21 13:26:00,
2014-12-21 08:27:00,31.9,30.1,30.27,North,0,0.0,2.0,93,0.00,,---,-99.99,VWS V14.01,2014-12-21 13:27:00,
2014-12-21 08:28:00,32.1,30.3,30.27,North,0,0.0,2.0,93,0.00,,---,-99.99,VWS V14.01,2014-12-21 13:28:00,
2014-12-21 08:29:00,32.1,30.3,30.27,North,0,0.0,2.0,93,0.00,,---,-99.99,VWS V14.01,2014-12-21 13:29:00,
2014-12-21 08:30:00,32.1,30.0,30.27,North,0,0.0,2.0,92,0.00,,---,-99.99,VWS V14.01,2014-12-21 13:30:00,
2014-12-21 08:31:00,32.1,31.1,30.27,North,0,0.0,2.0,96,0.00,,---,-99.99,VWS V14.01,2014-12-21 13:31:00,
2014-12-21 08:32:00,32.1,30.3,30.27,North,0,0.0,2.0,93,0.00,,---,-99.99,VWS V14.01,2014-12-21 13:32:00,
2014-12-21 08:33:00,32.1,30.3,30.27,North,0,0.0,2.0,93,0.00,,---,-99.99,VWS V14.01,2014-12-21 13:33:00,
2014-12-21 08:34:00,32.2,30.4,30.27,North,0,0.0,2.0,93,0.00,,---,-99.99,VWS V14.01,2014-12-21 13:34:00,
2014-12-21 08:35:00,32.2,30.1,30.27,North,0,0.0,2.0,92,0.00,,---,-99.99,VWS V14.01,2014-12-21 13:35:00,
2014-12-21 08:36:00,32.2,30.1,30.27,North,0,0.0,2.0,92,0.00,,---,-99.99,VWS V14.01,2014-12-21 13:36:00,
2014-12-21 08:37:00,32.2,30.4,30.27,North,0,0.0,2.0,93,0.00,,---,-99.99,VWS V14.01,2014-12-21 13:37:00,
2014-12-21 08:38:00,32.2,30.1,30.27,North,0,0.0,2.0,92,0.00,,---,-99.99,VWS V14.01,2014-12-21 13:38:00,
2014-12-21 08:39:00,32.4,30.3,30.27,North,0,0.0,2.0,92,0.00,,---,-99.99,VWS V14.01,2014-12-21 13:39:00,
2014-12-21 08:40:00,32.4,30.3,30.27,North,0,0.0,2.0,92,0.00,,---,-99.99,VWS V14.01,2014-12-21 13:40:00,
2014-12-21 08:41:00,32.4,30.3,30.27,North,0,0.0,2.0,92,0.00,,---,-99.99,VWS V14.01,2014-12-21 13:41:00,
2014-12-21 08:42:00,32.4,30.3,30.27,North,0,0.0,2.0,92,0.00,,---,-99.99,VWS V14.01,2014-12-21 13:42:00,
2014-12-21 08:43:00,32.5,30.4,30.27,North,0,0.0,2.0,92,0.00,,---,-99.99,VWS V14.01,2014-12-21 13:43:00,
2014-12-21 08:44:00,32.5,30.4,30.27,North,0,0.0,2.0,92,0.00,,---,-99.99,VWS V14.01,2014-12-21 13:44:00,
2014-12-21 08:45:00,32.5,30.4,30.27,North,0,0.0,2.0,92,0.00,,---,-99.99,VWS V14.01,2014-12-21 13:45:00,
2014-12-21 08:46:00,32.5,30.4,30.27,North,0,0.0,2.0,92,0.00,,---,-99.99,VWS V14.01,2014-12-21 13:46:00,
2014-12-21 08:47:00,32.7,30.6,30.27,North,0,0.0,2.0,92,0.00,,---,-99.99,VWS V14.01,2014-12-21 13:47:00,
2014-12-21 08:48:00,32.7,30.6,30.27,North,0,0.0,2.0,92,0.00,,---,-99.99,VWS V14.01,2014-12-21 13:48:00,
2014-12-21 08:49:00,32.7,30.6,30.27,North,0,0.0,2.0,92,0.00,,---,-99.99,VWS V14.01,2014-12-21 13:49:00,
2014-12-21 08:50:00,32.8,30.7,30.27,North,0,0.0,2.0,92,0.00,,---,-99.99,VWS V14.01,2014-12-21 13:50:00,
2014-12-21 08:51:00,32.8,30.7,30.27,North,0,0.0,2.0,92,0.00,,---,-99.99,VWS V14.01,2014-12-21 13:51:00,
2014-12-21 08:52:00,32.8,30.7,30.27,North,0,0.0,2.0,92,0.00,,---,-99.99,VWS V14.01,2014-12-21 13:52:00,
2014-12-21 08:53:00,32.8,30.7,30.27,North,0,0.0,2.0,92,0.00,,---,-99.99,VWS V14.01,2014-12-21 13:53:00,
2014-12-21 08:54:00,32.9,30.6,30.27,North,0,0.0,2.0,91,0.00,,---,-99.99,VWS V14.01,2014-12-21 13:54:00,
2014-12-21 08:55:00,32.9,30.6,30.27,North,0,0.0,2.0,91,0.00,,---,-99.99,VWS V14.01,2014-12-21 13:55:00,
2014-12-21 08:56:00,32.9,30.6,30.27,North,0,0.0,2.0,91,0.00,,---,-99.99,VWS V14.01,2014-12-21 13:56:00,
2014-12-21 08:57:00,32.9,30.6,30.27,North,0,0.0,2.0,91,0.00,,---,-99.99,VWS V14.01,2014-12-21 13:57:00,
2014-12-21 08:58:00,32.9,30.3,30.27,North,0,0.0,2.0,90,0.00,,---,-99.99,VWS V14.01,2014-12-21 13:58:00,
2014-12-21 08:59:00,33.1,30.5,30.27,North,0,0.0,2.0,90,0.00,,---,-99.99,VWS V14.01,2014-12-21 13:59:00,
2014-12-21 09:00:00,33.1,31.0,30.27,North,0,0.0,2.0,92,0.00,,---,-99.99,VWS V14.01,2014-12-21 14:00:00,
2014-12-21 09:01:00,33.1,31.0,30.27,North,0,0.0,0.0,92,0.00,,---,-99.99,VWS V14.01,2014-12-21 14:01:00,
2014-12-21 09:02:00,33.1,31.0,30.27,North,0,0.0,0.0,92,0.00,,---,-99.99,VWS V14.01,2014-12-21 14:02:00,
2014-12-21 09:03:00,33.1,30.5,30.27,North,0,0.0,0.0,90,0.00,,---,-99.99,VWS V14.01,2014-12-21 14:03:00,
2014-12-21 09:04:00,33.1,30.5,30.27,North,0,0.0,0.0,90,0.00,,---,-99.99,VWS V14.01,2014-12-21 14:04:00,
2014-12-21 09:05:00,33.2,30.6,30.27,North,0,0.0,0.0,90,0.00,,---,-99.99,VWS V14.01,2014-12-21 14:05:00,
2014-12-21 09:06:00,33.2,30.6,30.27,North,0,0.0,0.0,90,0.00,,---,-99.99,VWS V14.01,2014-12-21 14:06:00,
2014-12-21 09:07:00,33.2,30.3,30.27,North,0,0.0,0.0,89,0.00,,---,-99.99,VWS V14.01,2014-12-21 14:07:00,
2014-12-21 09:08:00,33.2,30.3,30.27,North,0,0.0,0.0,89,0.00,,---,-99.99,VWS V14.01,2014-12-21 14:08:00,
2014-12-21 09:09:00,33.4,30.5,30.27,North,0,0.0,0.0,89,0.00,,---,-99.99,VWS V14.01,2014-12-21 14:09:00,
2014-12-21 09:10:00,33.4,30.5,30.27,North,0,0.0,0.0,89,0.00,,---,-99.99,VWS V14.01,2014-12-21 14:10:00,
2014-12-21 09:11:00,33.5,30.6,30.27,North,0,0.0,0.0,89,0.00,,---,-99.99,VWS V14.01,2014-12-21 14:11:00,
2014-12-21 09:12:00,33.5,30.3,30.27,North,0,0.0,0.0,88,0.00,,---,-99.99,VWS V14.01,2014-12-21 14:12:00,
2014-12-21 09:13:00,33.5,30.3,30.27,North,0,0.0,1.0,88,0.00,,---,-99.99,VWS V14.01,2014-12-21 14:13:00,
2014-12-21 09:14:00,33.5,30.3,30.27,North,0,0.0,1.0,88,0.00,,---,-99.99,VWS V14.01,2014-12-21 14:14:00,
2014-12-21 09:15:00,33.7,30.5,30.27,North,0,0.0,1.0,88,0.00,,---,-99.99,VWS V14.01,2014-12-21 14:15:00,
2014-12-21 09:16:00,33.7,30.5,30.27,North,0,0.0,1.0,88,0.00,,---,-99.99,VWS V14.01,2014-12-21 14:16:00,
2014-12-21 09:17:00,33.7,30.5,30.27,North,0,0.0,1.0,88,0.00,,---,-99.99,VWS V14.01,2014-12-21 14:17:00,
2014-12-21 09:18:00,33.8,30.4,30.27,North,0,0.0,1.0,87,0.00,,---,-99.99,VWS V14.01,2014-12-21 14:18:00,
2014-12-21 09:19:00,33.8,30.4,30.27,North,0,0.0,1.0,87,0.00,,---,-99.99,VWS V14.01,2014-12-21 14:19:00,
2014-12-21 09:20:00,33.8,30.1,30.27,North,0,0.0,1.0,86,0.00,,---,-99.99,VWS V14.01,2014-12-21 14:20:00,
2014-12-21 09:21:00,33.8,30.1,30.27,North,0,0.0,1.0,86,0.00,,---,-99.99,VWS V14.01,2014-12-21 14:21:00,
2014-12-21 09:22:00,33.8,30.1,30.27,North,0,0.0,1.0,86,0.00,,---,-99.99,VWS V14.01,2014-12-21 14:22:00,
2014-12-21 09:23:00,33.8,30.1,30.27,North,0,0.0,1.0,86,0.00,,---,-99.99,VWS V14.01,2014-12-21 14:23:00,
2014-12-21 09:24:00,33.8,29.8,30.27,North,0,0.0,1.0,85,0.00,,---,-99.99,VWS V14.01,2014-12-21 14:24:00,
2014-12-21 09:25:00,34.0,30.0,30.27,North,0,0.0,1.0,85,0.00,,---,-99.99,VWS V14.01,2014-12-21 14:25:00,
2014-12-21 09:26:00,34.0,30.0,30.27,North,0,0.0,1.0,85,0.00,,---,-99.99,VWS V14.01,2014-12-21 14:26:00,
2014-12-21 09:27:00,34.0,30.0,30.27,North,0,0.0,1.0,85,0.00,,---,-99.99,VWS V14.01,2014-12-21 14:27:00,
2014-12-21 09:28:00,34.1,30.1,30.27,North,1,0.0,2.0,85,0.00,,---,-99.99,VWS V14.01,2014-12-21 14:28:00,
2014-12-21 09:29:00,34.1,30.1,30.27,North,1,0.0,2.0,85,0.00,,---,-99.99,VWS V14.01,2014-12-21 14:29:00,
2014-12-21 09:30:00,34.1,29.8,30.26,North,1,0.0,2.0,84,0.00,,---,-99.99,VWS V14.01,2014-12-21 14:30:00,
2014-12-21 09:31:00,34.1,29.8,30.26,North,4,0.0,2.0,84,0.00,,---,-99.99,VWS V14.01,2014-12-21 14:31:00,
2014-12-21 09:32:00,34.1,29.5,30.26,North,4,0.0,2.0,83,0.00,,---,-99.99,VWS V14.01,2014-12-21 14:32:00,
2014-12-21 09:33:00,34.1,29.5,30.26,North,3,0.0,2.0,83,0.00,,---,-99.99,VWS V14.01,2014-12-21 14:33:00,
2014-12-21 09:34:00,34.1,29.5,30.26,North,3,0.0,2.0,83,0.00,,---,-99.99,VWS V14.01,2014-12-21 14:34:00,
2014-12-21 09:35:00,34.3,29.4,30.26,North,3,0.0,2.0,82,0.00,,---,-99.99,VWS V14.01,2014-12-21 14:35:00,
2014-12-21 09:36:00,34.3,29.4,30.26,North,3,0.0,2.0,82,0.00,,---,-99.99,VWS V14.01,2014-12-21 14:36:00,
2014-12-21 09:37:00,34.3,29.4,30.26,North,3,0.0,2.0,82,0.00,,---,-99.99,VWS V14.01,2014-12-21 14:37:00,
2014-12-21 09:38:00,34.3,29.4,30.26,North,3,1.0,2.0,82,0.00,,---,-99.99,VWS V14.01,2014-12-21 14:38:00,
2014-12-21 09:39:00,34.3,29.1,30.26,North,3,0.0,2.0,81,0.00,,---,-99.99,VWS V14.01,2014-12-21 14:39:00,
2014-12-21 09:40:00,34.3,29.1,30.26,North,3,0.0,2.0,81,0.00,,---,-99.99,VWS V14.01,2014-12-21 14:40:00,
2014-12-21 09:41:00,34.3,29.1,30.26,North,3,0.0,2.0,81,0.00,,---,-99.99,VWS V14.01,2014-12-21 14:41:00,
2014-12-21 09:42:00,34.3,29.1,30.26,North,3,2.0,2.0,81,0.00,,---,-99.99,VWS V14.01,2014-12-21 14:42:00,
2014-12-21 09:43:00,34.3,28.8,30.26,North,3,0.0,2.0,80,0.00,,---,-99.99,VWS V14.01,2014-12-21 14:43:00,
2014-12-21 09:44:00,34.3,28.8,30.25,North,3,0.0,2.0,80,0.00,,---,-99.99,VWS V14.01,2014-12-21 14:44:00,
2014-12-21 09:45:00,34.3,28.8,30.25,North,3,0.0,2.0,80,0.00,,---,-99.99,VWS V14.01,2014-12-21 14:45:00,
2014-12-21 09:46:00,34.3,28.8,30.25,North,3,0.0,2.0,80,0.00,,---,-99.99,VWS V14.01,2014-12-21 14:46:00,
2014-12-21 09:47:00,34.3,28.8,30.25,North,3,0.0,2.0,80,0.00,,---,-99.99,VWS V14.01,2014-12-21 14:47:00,
2014-12-21 09:48:00,34.3,28.8,30.25,North,3,0.0,2.0,80,0.00,,---,-99.99,VWS V14.01,2014-12-21 14:48:00,
2014-12-21 09:49:00,34.3,28.8,30.25,North,3,0.0,2.0,80,0.00,,---,-99.99,VWS V14.01,2014-12-21 14:49:00,
2014-12-21 09:50:00,34.3,28.8,30.25,North,3,0.0,2.0,80,0.00,,---,-99.99,VWS V14.01,2014-12-21 14:50:00,
2014-12-21 09:51:00,34.3,28.8,30.25,North,3,0.0,2.0,80,0.00,,---,-99.99,VWS V14.01,2014-12-21 14:51:00,
2014-12-21 09:52:00,34.3,28.8,30.25,North,3,0.0,2.0,80,0.00,,---,-99.99,VWS V14.01,2014-12-21 14:52:00,
2014-12-21 09:53:00,34.3,28.8,30.25,North,3,0.0,2.0,80,0.00,,---,-99.99,VWS V14.01,2014-12-21 14:53:00,
2014-12-21 09:54:00,34.3,28.8,30.25,North,3,0.0,2.0,80,0.00,,---,-99.99,VWS V14.01,2014-12-21 14:54:00,
2014-12-21 09:55:00,34.4,28.9,30.25,North,3,0.0,2.0,80,0.00,,---,-99.99,VWS V14.01,2014-12-21 14:55:00,
2014-12-21 09:56:00,34.4,28.9,30.25,North,3,0.0,2.0,80,0.00,,---,-99.99,VWS V14.01,2014-12-21 14:56:00,
2014-12-21 09:57:00,34.4,28.9,30.25,North,3,0.0,2.0,80,0.00,,---,-99.99,VWS V14.01,2014-12-21 14:57:00,
2014-12-21 09:58:00,34.4,28.9,30.25,North,3,1.0,2.0,80,0.00,,---,-99.99,VWS V14.01,2014-12-21 14:58:00,
2014-12-21 09:59:00,34.4,28.9,30.25,North,3,2.0,2.0,80,0.00,,---,-99.99,VWS V14.01,2014-12-21 14:59:00,
2014-12-21 10:00:00,34.4,28.9,30.25,North,3,0.0,2.0,80,0.00,,---,-99.99,VWS V14.01,2014-12-21 15:00:00,
2014-12-21 10:01:00,34.4,28.9,30.25,North,3,0.0,0.0,80,0.00,,---,-99.99,VWS V14.01,2014-12-21 15:01:00,
2014-12-21 10:02:00,34.4,28.9,30.25,North,3,0.0,2.0,80,0.00,,---,-99.99,VWS V14.01,2014-12-21 15:02:00,
2014-12-21 10:03:00,34.4,28.9,30.25,North,8,0.0,2.0,80,0.00,,---,-99.99,VWS V14.01,2014-12-21 15:03:00,
2014-12-21 10:04:00,34.6,29.1,30.25,North,8,0.0,2.0,80,0.00,,---,-99.99,VWS V14.01,2014-12-21 15:04:00,
2014-12-21 10:05:00,34.6,29.1,30.25,North,8,0.0,2.0,80,0.00,,---,-99.99,VWS V14.01,2014-12-21 15:05:00,
2014-12-21 10:06:00,34.7,29.2,30.25,North,8,0.0,2.0,80,0.00,,---,-99.99,VWS V14.01,2014-12-21 15:06:00,
2014-12-21 10:07:00,34.7,29.2,30.25,North,8,0.0,2.0,80,0.00,,---,-99.99,VWS V14.01,2014-12-21 15:07:00,
2014-12-21 10:08:00,34.7,29.2,30.25,NNE,18,2.0,2.0,80,0.00,,---,-99.99,VWS V14.01,2014-12-21 15:08:00,
2014-12-21 10:09:00,34.7,28.9,30.25,NNE,18,0.0,2.0,79,0.00,,---,-99.99,VWS V14.01,2014-12-21 15:09:00,
2014-12-21 10:10:00,34.7,28.9,30.25,NE,34,0.0,2.0,79,0.00,,---,-99.99,VWS V14.01,2014-12-21 15:10:00,
2014-12-21 10:11:00,34.7,28.9,30.25,NE,34,0.0,2.0,79,0.00,,---,-99.99,VWS V14.01,2014-12-21 15:11:00,
2014-12-21 10:12:00,34.7,28.9,30.25,NE,34,0.0,2.0,79,0.00,,---,-99.99,VWS V14.01,2014-12-21 15:12:00,
2014-12-21 10:13:00,34.7,28.9,30.25,NE,34,0.0,2.0,79,0.00,,---,-99.99,VWS V14.01,2014-12-21 15:13:00,
2014-12-21 10:14:00,34.7,28.9,30.25,NE,34,0.0,2.0,79,0.00,,---,-99.99,VWS V14.01,2014-12-21 15:14:00,
2014-12-21 10:15:00,34.9,29.1,30.25,NE,34,0.0,2.0,79,0.00,,---,-99.99,VWS V14.01,2014-12-21 15:15:00,
2014-12-21 10:16:00,34.9,29.1,30.25,NE,34,0.0,2.0,79,0.00,,---,-99.99,VWS V14.01,2014-12-21 15:16:00,
2014-12-21 10:17:00,34.9,29.1,30.25,NE,34,0.0,2.0,79,0.00,,---,-99.99,VWS V14.01,2014-12-21 15:17:00,
2014-12-21 10:18:00,35.0,29.2,30.25,NE,34,0.0,2.0,79,0.00,,---,-99.99,VWS V14.01,2014-12-21 15:18:00,
2014-12-21 10:19:00,35.0,29.2,30.25,NE,34,0.0,2.0,79,0.00,,---,-99.99,VWS V14.01,2014-12-21 15:19:00,
2014-12-21 10:20:00,35.2,29.4,30.25,NE,34,0.0,2.0,79,0.00,,---,-99.99,VWS V14.01,2014-12-21 15:20:00,
2014-12-21 10:21:00,35.2,29.7,30.25,NE,34,0.0,2.0,80,0.00,,---,-99.99,VWS V14.01,2014-12-21 15:21:00,
2014-12-21 10:22:00,35.3,29.5,30.25,NE,34,0.0,2.0,79,0.00,,---,-99.99,VWS V14.01,2014-12-21 15:22:00,
2014-12-21 10:23:00,35.3,29.5,30.25,NE,35,0.0,2.0,79,0.00,,---,-99.99,VWS V14.01,2014-12-21 15:23:00,
2014-12-21 10:24:00,35.3,29.5,30.25,NE,35,0.0,2.0,79,0.00,,---,-99.99,VWS V14.01,2014-12-21 15:24:00,
2014-12-21 10:25:00,35.3,29.5,30.25,WNW,302,2.0,2.0,79,0.00,,---,-99.99,VWS V14.01,2014-12-21 15:25:00,
2014-12-21 10:26:00,35.3,29.5,30.25,NE,42,0.0,2.0,79,0.00,,---,-99.99,VWS V14.01,2014-12-21 15:26:00,
2014-12-21 10:27:00,35.3,29.5,30.25,NE,42,0.0,2.0,79,0.00,,---,-99.99,VWS V14.01,2014-12-21 15:27:00,
2014-12-21 10:28:00,35.3,29.5,30.25,NE,42,0.0,2.0,79,0.00,,---,-99.99,VWS V14.01,2014-12-21 15:28:00,
2014-12-21 10:29:00,35.5,29.6,30.25,NE,42,0.0,2.0,79,0.00,,---,-99.99,VWS V14.01,2014-12-21 15:29:00,
2014-12-21 10:30:00,35.3,29.5,30.25,NE,42,0.0,2.0,79,0.00,,---,-99.99,VWS V14.01,2014-12-21 15:30:00,
2014-12-21 10:31:00,35.5,29.3,30.25,NE,42,0.0,2.0,78,0.00,,---,-99.99,VWS V14.01,2014-12-21 15:31:00,
2014-12-21 10:32:00,35.5,29.3,30.25,NE,42,0.0,2.0,78,0.00,,---,-99.99,VWS V14.01,2014-12-21 15:32:00,
2014-12-21 10:33:00,35.5,29.3,30.25,NE,42,0.0,2.0,78,0.00,,---,-99.99,VWS V14.01,2014-12-21 15:33:00,
2014-12-21 10:34:00,35.5,29.3,30.25,NE,42,0.0,2.0,78,0.00,,---,-99.99,VWS V14.01,2014-12-21 15:34:00,
2014-12-21 10:35:00,35.5,29.3,30.25,NE,42,0.0,2.0,78,0.00,,---,-99.99,VWS V14.01,2014-12-21 15:35:00,
2014-12-21 10:36:00,35.6,29.4,30.25,NE,42,0.0,2.0,78,0.00,,---,-99.99,VWS V14.01,2014-12-21 15:36:00,
2014-12-21 10:37:00,35.6,29.7,30.25,NE,42,0.0,2.0,79,0.00,,---,-99.99,VWS V14.01,2014-12-21 15:37:00,
2014-12-21 10:38:00,35.8,29.9,30.25,NE,42,0.0,2.0,79,0.00,,---,-99.99,VWS V14.01,2014-12-21 15:38:00,
2014-12-21 10:39:00,35.8,29.6,30.25,NE,42,0.0,2.0,78,0.00,,---,-99.99,VWS V14.01,2014-12-21 15:39:00,
2014-12-21 10:40:00,35.8,29.6,30.25,NE,44,2.0,2.0,78,0.00,,---,-99.99,VWS V14.01,2014-12-21 15:40:00,
2014-12-21 10:41:00,35.8,29.6,30.25,NE,44,0.0,2.0,78,0.00,,---,-99.99,VWS V14.01,2014-12-21 15:41:00,
2014-12-21 10:42:00,35.9,29.7,30.25,NE,44,0.0,2.0,78,0.00,,---,-99.99,VWS V14.01,2014-12-21 15:42:00,
2014-12-21 10:43:00,35.8,29.6,30.25,NE,44,0.0,2.0,78,0.00,,---,-99.99,VWS V14.01,2014-12-21 15:43:00,
2014-12-21 10:44:00,35.9,29.7,30.25,NE,44,0.0,2.0,78,0.00,,---,-99.99,VWS V14.01,2014-12-21 15:44:00,
2014-12-21 10:45:00,35.8,29.6,30.24,NE,44,0.0,2.0,78,0.00,,---,-99.99,VWS V14.01,2014-12-21 15:45:00,
2014-12-21 10:46:00,35.8,29.3,30.24,NE,44,1.0,2.0,77,0.00,,---,-99.99,VWS V14.01,2014-12-21 15:46:00,
2014-12-21 10:47:00,35.8,29.3,30.24,NE,44,0.0,2.0,77,0.00,,---,-99.99,VWS V14.01,2014-12-21 15:47:00,
2014-12-21 10:48:00,35.8,29.3,30.24,NE,44,0.0,2.0,77,0.00,,---,-99.99,VWS V14.01,2014-12-21 15:48:00,
2014-12-21 10:49:00,35.8,29.3,30.24,NE,44,0.0,2.0,77,0.00,,---,-99.99,VWS V14.01,2014-12-21 15:49:00,
2014-12-21 10:50:00,35.6,29.1,30.24,NE,44,0.0,2.0,77,0.00,,---,-99.99,VWS V14.01,2014-12-21 15:50:00,
2014-12-21 10:51:00,35.6,29.1,30.24,NE,44,0.0,2.0,77,0.00,,---,-99.99,VWS V14.01,2014-12-21 15:51:00,
2014-12-21 10:52:00,35.8,29.3,30.24,NE,44,0.0,2.0,77,0.00,,---,-99.99,VWS V14.01,2014-12-21 15:52:00,
2014-12-21 10:53:00,35.8,29.3,30.24,NE,44,0.0,2.0,77,0.00,,---,-99.99,VWS V14.01,2014-12-21 15:53:00,
2014-12-21 10:54:00,35.8,29.3,30.24,NE,44,0.0,2.0,77,0.00,,---,-99.99,VWS V14.01,2014-12-21 15:54:00,
2014-12-21 10:55:00,35.8,29.3,30.24,NE,40,0.0,2.0,77,0.00,,---,-99.99,VWS V14.01,2014-12-21 15:55:00,
2014-12-21 10:56:00,35.8,29.3,30.24,NE,40,0.0,2.0,77,0.00,,---,-99.99,VWS V14.01,2014-12-21 15:56:00,
2014-12-21 10:57:00,35.9,29.4,30.24,NE,40,0.0,2.0,77,0.00,,---,-99.99,VWS V14.01,2014-12-21 15:57:00,
2014-12-21 10:58:00,35.9,29.4,30.24,NE,40,0.0,2.0,77,0.00,,---,-99.99,VWS V14.01,2014-12-21 15:58:00,
2014-12-21 10:59:00,35.9,29.4,30.24,NE,40,0.0,2.0,77,0.00,,---,-99.99,VWS V14.01,2014-12-21 15:59:00,
2014-12-21 11:00:00,35.8,29.0,30.24,NE,40,0.0,2.0,76,0.00,,---,-99.99,VWS V14.01,2014-12-21 16:00:00,
2014-12-21 11:01:00,35.8,29.0,30.24,NE,40,0.0,0.0,76,0.00,,---,-99.99,VWS V14.01,2014-12-21 16:01:00,
2014-12-21 11:02:00,35.8,29.0,30.24,NE,40,0.0,0.0,76,0.00,,---,-99.99,VWS V14.01,2014-12-21 16:02:00,
2014-12-21 11:03:00,35.8,29.0,30.24,NE,40,0.0,0.0,76,0.00,,---,-99.99,VWS V14.01,2014-12-21 16:03:00,
2014-12-21 11:04:00,35.8,29.0,30.24,NE,40,0.0,0.0,76,0.00,,---,-99.99,VWS V14.01,2014-12-21 16:04:00,
2014-12-21 11:05:00,35.8,29.3,30.24,NE,40,0.0,0.0,77,0.00,,---,-99.99,VWS V14.01,2014-12-21 16:05:00,
2014-12-21 11:06:00,35.8,29.3,30.24,NE,41,0.0,1.0,77,0.00,,---,-99.99,VWS V14.01,2014-12-21 16:06:00,
2014-12-21 11:07:00,35.8,29.3,30.24,NE,41,0.0,1.0,77,0.00,,---,-99.99,VWS V14.01,2014-12-21 16:07:00,
2014-12-21 11:08:00,35.8,29.3,30.24,NE,41,0.0,1.0,77,0.00,,---,-99.99,VWS V14.01,2014-12-21 16:08:00,
2014-12-21 11:09:00,35.8,29.0,30.24,NE,41,0.0,1.0,76,0.00,,---,-99.99,VWS V14.01,2014-12-21 16:09:00,
2014-12-21 11:10:00,35.8,29.0,30.24,NE,41,0.0,1.0,76,0.00,,---,-99.99,VWS V14.01,2014-12-21 16:10:00,
2014-12-21 11:11:00,35.8,29.0,30.24,NE,41,0.0,1.0,76,0.00,,---,-99.99,VWS V14.01,2014-12-21 16:11:00,
2014-12-21 11:12:00,35.9,29.1,30.24,NE,41,0.0,1.0,76,0.00,,---,-99.99,VWS V14.01,2014-12-21 16:12:00,
2014-12-21 11:13:00,35.9,29.1,30.24,NE,41,0.0,1.0,76,0.00,,---,-99.99,VWS V14.01,2014-12-21 16:13:00,
2014-12-21 11:14:00,35.9,29.4,30.24,NE,41,0.0,1.0,77,0.00,,---,-99.99,VWS V14.01,2014-12-21 16:14:00,
2014-12-21 11:15:00,35.9,29.4,30.23,NE,52,0.0,1.0,77,0.00,,---,-99.99,VWS V14.01,2014-12-21 16:15:00,
2014-12-21 11:16:00,35.9,29.1,30.23,ENE,66,2.0,6.0,76,0.00,,---,-99.99,VWS V14.01,2014-12-21 16:16:00,
2014-12-21 11:17:00,35.9,29.1,30.23,ENE,78,0.0,6.0,76,0.00,,---,-99.99,VWS V14.01,2014-12-21 16:17:00,
2014-12-21 11:18:00,35.9,29.1,30.23,ENE,76,0.0,6.0,76,0.00,,---,-99.99,VWS V14.01,2014-12-21 16:18:00,
2014-12-21 11:19:00,36.0,29.2,30.23,ENE,76,0.0,6.0,76,0.00,,---,-99.99,VWS V14.01,2014-12-21 16:19:00,
2014-12-21 11:20:00,36.0,29.2,30.23,ENE,76,0.0,6.0,76,0.00,,---,-99.99,VWS V14.01,2014-12-21 16:20:00,
2014-12-21 11:21:00,36.0,29.2,30.23,ENE,76,0.0,6.0,76,0.00,,---,-99.99,VWS V14.01,2014-12-21 16:21:00,
2014-12-21 11:22:00,36.0,29.2,30.23,ENE,76,0.0,6.0,76,0.00,,---,-99.99,VWS V14.01,2014-12-21 16:22:00,
2014-12-21 11:23:00,36.0,29.2,30.23,ENE,76,0.0,6.0,76,0.00,,---,-99.99,VWS V14.01,2014-12-21 16:23:00,
2014-12-21 11:24:00,36.2,29.4,30.23,ENE,76,0.0,6.0,76,0.00,,---,-99.99,VWS V14.01,2014-12-21 16:24:00,
2014-12-21 11:25:00,36.2,29.4,30.23,ENE,76,0.0,6.0,76,0.00,,---,-99.99,VWS V14.01,2014-12-21 16:25:00,
2014-12-21 11:26:00,36.2,29.4,30.23,ENE,76,0.0,6.0,76,0.00,,---,-99.99,VWS V14.01,2014-12-21 16:26:00,
2014-12-21 11:27:00,36.2,29.4,30.23,ENE,78,0.0,6.0,76,0.00,,---,-99.99,VWS V14.01,2014-12-21 16:27:00,
2014-12-21 11:28:00,36.2,29.4,30.23,ENE,78,0.0,6.0,76,0.00,,---,-99.99,VWS V14.01,2014-12-21 16:28:00,
2014-12-21 11:29:00,36.2,29.4,30.23,ENE,78,0.0,6.0,76,0.00,,---,-99.99,VWS V14.01,2014-12-21 16:29:00,
2014-12-21 11:30:00,36.2,29.4,30.23,ENE,78,0.0,6.0,76,0.00,,---,-99.99,VWS V14.01,2014-12-21 16:30:00,
2014-12-21 11:31:00,36.3,29.5,30.23,ENE,78,0.0,6.0,76,0.00,,---,-99.99,VWS V14.01,2014-12-21 16:31:00,
2014-12-21 11:32:00,36.3,29.5,30.23,ENE,76,0.0,6.0,76,0.00,,---,-99.99,VWS V14.01,2014-12-21 16:32:00,
2014-12-21 11:33:00,36.3,29.5,30.23,ENE,76,0.0,6.0,76,0.00,,---,-99.99,VWS V14.01,2014-12-21 16:33:00,
2014-12-21 11:34:00,36.3,29.5,30.23,ENE,76,0.0,6.0,76,0.00,,---,-99.99,VWS V14.01,2014-12-21 16:34:00,
2014-12-21 11:35:00,36.3,29.5,30.23,ENE,76,0.0,6.0,76,0.00,,---,-99.99,VWS V14.01,2014-12-21 16:35:00,
2014-12-21 11:36:00,36.2,29.4,30.23,ENE,76,0.0,6.0,76,0.00,,---,-99.99,VWS V14.01,2014-12-21 16:36:00,
2014-12-21 11:37:00,36.2,29.4,30.23,ENE,62,0.0,6.0,76,0.00,,---,-99.99,VWS V14.01,2014-12-21 16:37:00,
2014-12-21 11:38:00,36.2,29.4,30.23,ENE,64,1.0,6.0,76,0.00,,---,-99.99,VWS V14.01,2014-12-21 16:38:00,
2014-12-21 11:39:00,36.2,29.4,30.23,ENE,64,0.0,6.0,76,0.00,,---,-99.99,VWS V14.01,2014-12-21 16:39:00,
2014-12-21 11:40:00,36.2,29.4,30.23,ENE,64,0.0,6.0,76,0.00,,---,-99.99,VWS V14.01,2014-12-21 16:40:00,
2014-12-21 11:41:00,36.2,29.4,30.23,ENE,64,0.0,6.0,76,0.00,,---,-99.99,VWS V14.01,2014-12-21 16:41:00,
2014-12-21 11:42:00,36.2,29.4,30.23,ENE,65,0.0,6.0,76,0.00,,---,-99.99,VWS V14.01,2014-12-21 16:42:00,
2014-12-21 11:43:00,36.2,29.4,30.23,ENE,65,0.0,6.0,76,0.00,,---,-99.99,VWS V14.01,2014-12-21 16:43:00,
2014-12-21 11:44:00,36.2,29.4,30.23,ENE,65,0.0,6.0,76,0.00,,---,-99.99,VWS V14.01,2014-12-21 16:44:00,
2014-12-21 11:45:00,36.3,29.5,30.23,ENE,65,0.0,6.0,76,0.00,,---,-99.99,VWS V14.01,2014-12-21 16:45:00,